| time (UTC) | temp C | wind direction | speed KPH | gust KPH | rain 1hr cm | rain 24hr cm | rain mn cm | humidity % | barometer mb |
| 20260502170504 | 20 | 329 | 16.1 | 27.4 | 0.00 | 0.33 | 0.00 | 59 | 1015.0 |
| 20260502170403 | 20 | 0 | 14.5 | 24.1 | 0.00 | 0.33 | 0.00 | 61 | 1015.1 |
| 20260502170303 | 20 | 0 | 9.7 | 24.1 | 0.00 | 0.33 | 0.00 | 61 | 1015.1 |
| 20260502170202 | 20 | 355 | 12.9 | 24.1 | 0.00 | 0.33 | 0.00 | 60 | 1015.1 |
| 20260502170103 | 20 | 344 | 17.7 | 24.1 | 0.00 | 0.33 | 0.00 | 59 | 1015.2 |
| 20260502164303 | 20 | 357 | 9.7 | 24.1 | 0.00 | 0.36 | 0.00 | 64 | 1015.2 |
| 20260502164203 | 20 | 343 | 14.5 | 24.1 | 0.00 | 0.36 | 0.00 | 64 | 1015.2 |
| 20260502164102 | 20 | 1 | 14.5 | 24.1 | 0.00 | 0.36 | 0.00 | 63 | 1015.2 |
| 20260502164003 | 20 | 344 | 14.5 | 24.1 | 0.00 | 0.36 | 0.00 | 64 | 1015.2 |
| 20260502163902 | 20 | 350 | 14.5 | 24.1 | 0.00 | 0.36 | 0.00 | 65 | 1015.1 |
| 20260502163804 | 20 | 1 | 9.7 | 24.1 | 0.00 | 0.36 | 0.00 | 64 | 1015.1 |
| 20260502163704 | 20 | 47 | 12.9 | 22.5 | 0.00 | 0.36 | 0.00 | 64 | 1015.1 |
| 20260502163604 | 20 | 1 | 16.1 | 22.5 | 0.00 | 0.36 | 0.00 | 66 | 1015.3 |
| 20260502163503 | 20 | 17 | 14.5 | 22.5 | 0.00 | 0.36 | 0.00 | 66 | 1015.1 |
| 20260502163401 | 20 | 3 | 12.9 | 22.5 | 0.00 | 0.36 | 0.00 | 67 | 1015.1 |
| 20260502163301 | 19 | 13 | 9.7 | 22.5 | 0.00 | 0.36 | 0.00 | 68 | 1015.1 |
| 20260502163203 | 19 | 0 | 12.9 | 22.5 | 0.00 | 0.36 | 0.00 | 68 | 1015.0 |
| 20260502163104 | 19 | 4 | 17.7 | 22.5 | 0.00 | 0.36 | 0.00 | 67 | 1015.1 |
| 20260502163005 | 19 | 344 | 12.9 | 22.5 | 0.00 | 0.36 | 0.00 | 67 | 1015.0 |
| 20260502162904 | 19 | 347 | 12.9 | 22.5 | 0.00 | 0.36 | 0.00 | 67 | 1015.1 |
| 20260502162803 | 19 | 353 | 14.5 | 22.5 | 0.00 | 0.36 | 0.00 | 67 | 1015.1 |
| 20260502162703 | 19 | 313 | 14.5 | 22.5 | 0.00 | 0.36 | 0.00 | 67 | 1015.1 |
| 20260502162604 | 19 | 353 | 12.9 | 22.5 | 0.00 | 0.36 | 0.00 | 66 | 1015.1 |
| 20260502162503 | 19 | 47 | 9.7 | 22.5 | 0.00 | 0.36 | 0.00 | 69 | 1015.3 |
| 20260502162402 | 19 | 31 | 9.7 | 20.9 | 0.00 | 0.36 | 0.00 | 69 | 1015.1 |
| 20260502162304 | 19 | 13 | 11.3 | 20.9 | 0.00 | 0.36 | 0.00 | 69 | 1015.1 |
| 20260502162203 | 19 | 28 | 11.3 | 20.9 | 0.00 | 0.38 | 0.00 | 68 | 1015.2 |
| 20260502162103 | 18 | 348 | 14.5 | 20.9 | 0.00 | 0.38 | 0.00 | 68 | 1015.1 |
| 20260502162004 | 19 | 327 | 16.1 | 20.9 | 0.00 | 0.38 | 0.00 | 69 | 1015.1 |
| 20260502161903 | 19 | 338 | 14.5 | 20.9 | 0.00 | 0.38 | 0.00 | 69 | 1015.1 |
| 20260502161802 | 19 | 333 | 12.9 | 17.7 | 0.00 | 0.38 | 0.00 | 69 | 1015.2 |
| 20260502161703 | 18 | 347 | 12.9 | 17.7 | 0.00 | 0.38 | 0.00 | 69 | 1015.2 |
| 20260502161604 | 18 | 6 | 12.9 | 17.7 | 0.00 | 0.38 | 0.00 | 69 | 1015.2 |
| 20260502161503 | 18 | 357 | 9.7 | 17.7 | 0.00 | 0.38 | 0.00 | 70 | 1015.2 |
| 20260502161402 | 18 | 329 | 8.0 | 17.7 | 0.00 | 0.38 | 0.00 | 69 | 1015.2 |
| 20260502161302 | 18 | 338 | 11.3 | 22.5 | 0.00 | 0.38 | 0.00 | 71 | 1015.3 |
| 20260502161203 | 18 | 0 | 14.5 | 22.5 | 0.00 | 0.38 | 0.00 | 71 | 1015.2 |
| 20260502161103 | 18 | 0 | 12.9 | 22.5 | 0.00 | 0.38 | 0.00 | 71 | 1015.1 |
| 20260502161003 | 18 | 323 | 11.3 | 22.5 | 0.00 | 0.38 | 0.00 | 70 | 1015.1 |
| 20260502160903 | 18 | 354 | 11.3 | 22.5 | 0.00 | 0.38 | 0.00 | 71 | 1015.1 |
| 20260502160801 | 18 | 338 | 9.7 | 22.5 | 0.00 | 0.38 | 0.00 | 71 | 1015.0 |
| 20260502160702 | 18 | 8 | 9.7 | 22.5 | 0.00 | 0.38 | 0.00 | 71 | 1015.0 |
| 20260502160604 | 18 | 350 | 11.3 | 25.7 | 0.00 | 0.38 | 0.00 | 71 | 1015.0 |
| 20260502160505 | 18 | 351 | 16.1 | 25.7 | 0.00 | 0.38 | 0.00 | 71 | 1014.9 |
| 20260502160404 | 18 | 341 | 14.5 | 25.7 | 0.00 | 0.38 | 0.00 | 71 | 1015.0 |
| 20260502160302 | 18 | 324 | 12.9 | 25.7 | 0.00 | 0.38 | 0.00 | 71 | 1015.0 |
| 20260502160203 | 18 | 338 | 12.9 | 25.7 | 0.00 | 0.38 | 0.00 | 71 | 1014.9 |
| 20260502152305 | 17 | 16 | 12.9 | 25.7 | 0.00 | 0.41 | 0.00 | 73 | 1014.8 |
| 20260502152204 | 17 | 49 | 12.9 | 25.7 | 0.00 | 0.41 | 0.00 | 73 | 1014.8 |
| 20260502152102 | 17 | 0 | 14.5 | 25.7 | 0.00 | 0.41 | 0.00 | 73 | 1014.8 |
| 20260502152004 | 17 | 0 | 12.9 | 25.7 | 0.00 | 0.41 | 0.00 | 75 | 1014.7 |
| 20260502151903 | 17 | 343 | 11.3 | 22.5 | 0.00 | 0.41 | 0.00 | 74 | 1014.8 |
| 20260502151803 | 17 | 344 | 11.3 | 29.0 | 0.00 | 0.41 | 0.00 | 73 | 1014.8 |
| 20260502151704 | 17 | 0 | 11.3 | 29.0 | 0.00 | 0.41 | 0.00 | 73 | 1014.8 |
| 20260502151602 | 17 | 30 | 11.3 | 29.0 | 0.00 | 0.41 | 0.00 | 73 | 1014.8 |
| 20260502151504 | 17 | 0 | 14.5 | 29.0 | 0.00 | 0.41 | 0.00 | 73 | 1014.8 |
| 20260502151403 | 17 | 1 | 14.5 | 29.0 | 0.00 | 0.41 | 0.00 | 73 | 1014.9 |
| 20260502151302 | 17 | 348 | 16.1 | 29.0 | 0.00 | 0.41 | 0.00 | 73 | 1014.9 |
| 20260502151202 | 17 | 0 | 17.7 | 29.0 | 0.00 | 0.41 | 0.00 | 73 | 1014.9 |
| 20260502151102 | 17 | 23 | 16.1 | 29.0 | 0.00 | 0.41 | 0.00 | 73 | 1014.8 |
| 20260502151002 | 17 | 0 | 19.3 | 29.0 | 0.00 | 0.41 | 0.00 | 74 | 1014.8 |
| 20260502150902 | 17 | 0 | 19.3 | 29.0 | 0.00 | 0.41 | 0.00 | 74 | 1014.9 |
| 20260502150802 | 17 | 0 | 16.1 | 24.1 | 0.00 | 0.41 | 0.00 | 73 | 1014.8 |
| 20260502150702 | 17 | 353 | 12.9 | 24.1 | 0.00 | 0.41 | 0.00 | 74 | 1014.8 |
| 20260502150604 | 17 | 351 | 14.5 | 24.1 | 0.00 | 0.41 | 0.00 | 74 | 1014.8 |
| 20260502150504 | 17 | 0 | 16.1 | 24.1 | 0.00 | 0.41 | 0.00 | 74 | 1014.8 |
| 20260502150402 | 17 | 4 | 14.5 | 24.1 | 0.00 | 0.41 | 0.00 | 75 | 1014.9 |
| 20260502150301 | 17 | 0 | 11.3 | 19.3 | 0.00 | 0.41 | 0.00 | 75 | 1014.8 |
| 20260502150202 | 17 | 18 | 11.3 | 19.3 | 0.00 | 0.41 | 0.00 | 74 | 1014.7 |
| 20260502130710 | 12 | 344 | 9.7 | 19.3 | 0.00 | 0.53 | 0.00 | 89 | 1013.9 |
| 20260502130610 | 12 | 337 | 9.7 | 19.3 | 0.00 | 0.53 | 0.00 | 89 | 1013.8 |
| 20260502130509 | 12 | 347 | 11.3 | 19.3 | 0.00 | 0.53 | 0.00 | 89 | 1013.7 |
| 20260502130406 | 12 | 306 | 12.9 | 19.3 | 0.00 | 0.53 | 0.00 | 89 | 1013.7 |
| 20260502130304 | 12 | 345 | 12.9 | 16.1 | 0.00 | 0.53 | 0.00 | 90 | 1013.8 |
| 20260502130203 | 12 | 321 | 9.7 | 16.1 | 0.00 | 0.53 | 0.00 | 90 | 1013.7 |
| 20260502123802 | 11 | 333 | 8.0 | 17.7 | 0.00 | 0.58 | 0.00 | 90 | 1013.1 |
| 20260502123704 | 11 | 341 | 9.7 | 17.7 | 0.00 | 0.58 | 0.00 | 90 | 1013.1 |
| 20260502123603 | 11 | 317 | 9.7 | 17.7 | 0.00 | 0.58 | 0.00 | 90 | 1013.2 |
| 20260502123503 | 11 | 333 | 11.3 | 17.7 | 0.00 | 0.58 | 0.00 | 90 | 1013.1 |
| 20260502123404 | 11 | 327 | 11.3 | 17.7 | 0.00 | 0.58 | 0.00 | 90 | 1013.1 |
| 20260502123302 | 11 | 336 | 12.9 | 17.7 | 0.00 | 0.58 | 0.00 | 90 | 1013.1 |
| 20260502123204 | 11 | 337 | 12.9 | 17.7 | 0.00 | 0.58 | 0.00 | 90 | 1013.0 |
| 20260502123102 | 11 | 341 | 12.9 | 17.7 | 0.00 | 0.58 | 0.00 | 90 | 1013.1 |
| 20260502123004 | 11 | 327 | 9.7 | 16.1 | 0.00 | 0.58 | 0.00 | 90 | 1013.1 |
| 20260502122902 | 11 | 338 | 9.7 | 14.5 | 0.00 | 0.58 | 0.00 | 90 | 1013.1 |
| 20260502122802 | 11 | 329 | 9.7 | 14.5 | 0.00 | 0.58 | 0.00 | 90 | 1013.0 |
| 20260502122704 | 11 | 337 | 9.7 | 16.1 | 0.00 | 0.58 | 0.00 | 90 | 1013.2 |
| 20260502122602 | 11 | 312 | 9.7 | 16.1 | 0.00 | 0.58 | 0.00 | 90 | 1013.1 |
| 20260502122505 | 11 | 340 | 11.3 | 16.1 | 0.00 | 0.58 | 0.00 | 90 | 1013.1 |
| 20260502122401 | 11 | 340 | 9.7 | 16.1 | 0.00 | 0.58 | 0.00 | 90 | 1013.1 |
| 20260502122305 | 11 | 329 | 8.0 | 16.1 | 0.00 | 0.58 | 0.00 | 90 | 1013.1 |
| 20260502122204 | 11 | 324 | 9.7 | 16.1 | 0.00 | 0.58 | 0.00 | 90 | 1013.0 |
| 20260502122102 | 11 | 336 | 8.0 | 16.1 | 0.00 | 0.58 | 0.00 | 90 | 1013.0 |
| 20260502122004 | 11 | 341 | 8.0 | 16.1 | 0.00 | 0.58 | 0.00 | 90 | 1013.0 |
| 20260502121904 | 11 | 337 | 11.3 | 16.1 | 0.00 | 0.58 | 0.00 | 90 | 1012.9 |
| 20260502121803 | 11 | 323 | 11.3 | 16.1 | 0.00 | 0.58 | 0.00 | 90 | 1013.0 |
| 20260502121704 | 11 | 336 | 9.7 | 16.1 | 0.00 | 0.58 | 0.00 | 90 | 1012.9 |
| 20260502121603 | 11 | 306 | 9.7 | 16.1 | 0.00 | 0.58 | 0.00 | 90 | 1012.9 |
| 20260502121502 | 11 | 347 | 8.0 | 11.3 | 0.00 | 0.58 | 0.00 | 90 | 1013.0 |
| 20260502121404 | 11 | 309 | 6.4 | 11.3 | 0.00 | 0.58 | 0.00 | 90 | 1013.0 |
| 20260502121304 | 11 | 341 | 6.4 | 11.3 | 0.00 | 0.58 | 0.00 | 90 | 1012.9 |
| 20260502121205 | 11 | 323 | 6.4 | 11.3 | 0.00 | 0.58 | 0.00 | 90 | 1012.9 |
| 20260502121104 | 11 | 326 | 6.4 | 11.3 | 0.00 | 0.58 | 0.00 | 90 | 1012.9 |
| 20260502121005 | 11 | 320 | 6.4 | 11.3 | 0.00 | 0.58 | 0.00 | 90 | 1013.0 |
| 20260502120904 | 11 | 323 | 8.0 | 11.3 | 0.00 | 0.58 | 0.00 | 90 | 1013.0 |
| 20260502120803 | 11 | 323 | 9.7 | 11.3 | 0.00 | 0.58 | 0.00 | 90 | 1013.0 |
| 20260502120702 | 11 | 326 | 8.0 | 11.3 | 0.00 | 0.58 | 0.00 | 90 | 1013.0 |
| 20260502120602 | 11 | 330 | 6.4 | 11.3 | 0.00 | 0.58 | 0.00 | 90 | 1013.0 |
| 20260502120503 | 11 | 345 | 8.0 | 11.3 | 0.00 | 0.58 | 0.00 | 90 | 1013.0 |
| 20260502120403 | 11 | 324 | 8.0 | 11.3 | 0.00 | 0.58 | 0.00 | 90 | 1013.1 |
| 20260502120302 | 11 | 347 | 6.4 | 9.7 | 0.00 | 0.58 | 0.00 | 90 | 1013.0 |
| 20260502120202 | 11 | 316 | 6.4 | 8.0 | 0.00 | 0.58 | 0.00 | 90 | 1013.0 |
| 20260502115903 | 11 | 317 | 6.4 | 8.0 | 0.00 | 0.58 | 0.00 | 90 | 1013.1 |
| 20260502115802 | 11 | 329 | 4.8 | 8.0 | 0.00 | 0.58 | 0.00 | 90 | 1013.1 |
| 20260502115702 | 11 | 327 | 6.4 | 8.0 | 0.00 | 0.58 | 0.00 | 90 | 1012.9 |
| 20260502115602 | 11 | 330 | 6.4 | 8.0 | 0.00 | 0.58 | 0.00 | 90 | 1013.1 |
| 20260502115504 | 11 | 309 | 4.8 | 8.0 | 0.00 | 0.58 | 0.00 | 90 | 1013.0 |
| 20260502115403 | 11 | 310 | 4.8 | 8.0 | 0.00 | 0.61 | 0.00 | 90 | 1012.9 |
| 20260502115306 | 11 | 310 | 6.4 | 8.0 | 0.00 | 0.61 | 0.00 | 90 | 1012.8 |
| 20260502115202 | 11 | 313 | 6.4 | 8.0 | 0.00 | 0.61 | 0.00 | 90 | 1012.8 |
| 20260502115103 | 11 | 314 | 6.4 | 6.4 | 0.00 | 0.61 | 0.00 | 90 | 1012.8 |
| 20260502115002 | 11 | 331 | 4.8 | 6.4 | 0.00 | 0.61 | 0.00 | 90 | 1012.8 |
| 20260502114903 | 11 | 331 | 3.2 | 6.4 | 0.00 | 0.61 | 0.00 | 90 | 1012.7 |
| 20260502114803 | 11 | 331 | 4.8 | 8.0 | 0.00 | 0.61 | 0.00 | 90 | 1012.7 |
| 20260502114701 | 11 | 333 | 4.8 | 8.0 | 0.00 | 0.61 | 0.00 | 90 | 1012.7 |
| 20260502114603 | 11 | 314 | 4.8 | 8.0 | 0.00 | 0.61 | 0.00 | 90 | 1012.6 |
| 20260502114502 | 11 | 338 | 3.2 | 8.0 | 0.00 | 0.61 | 0.00 | 90 | 1012.6 |
| 20260502114402 | 11 | 338 | 3.2 | 8.0 | 0.00 | 0.61 | 0.00 | 90 | 1012.6 |
| 20260502114302 | 11 | 338 | 4.8 | 8.0 | 0.00 | 0.61 | 0.00 | 90 | 1012.6 |
| 20260502114202 | 11 | 340 | 6.4 | 9.7 | 0.00 | 0.61 | 0.00 | 90 | 1012.5 |
| 20260502114102 | 11 | 340 | 6.4 | 9.7 | 0.00 | 0.61 | 0.00 | 90 | 1012.6 |
| 20260502114003 | 11 | 347 | 6.4 | 9.7 | 0.00 | 0.61 | 0.00 | 90 | 1012.6 |
| 20260502113903 | 11 | 354 | 4.8 | 9.7 | 0.00 | 0.61 | 0.00 | 90 | 1012.5 |
| 20260502113803 | 11 | 338 | 4.8 | 9.7 | 0.00 | 0.61 | 0.00 | 90 | 1012.5 |
| 20260502113703 | 11 | 341 | 4.8 | 9.7 | 0.00 | 0.64 | 0.00 | 90 | 1012.5 |
| 20260502113602 | 11 | 344 | 4.8 | 9.7 | 0.00 | 0.64 | 0.00 | 90 | 1012.5 |
| 20260502113505 | 11 | 344 | 6.4 | 9.7 | 0.00 | 0.64 | 0.00 | 90 | 1012.5 |
| 20260502113403 | 11 | 344 | 6.4 | 9.7 | 0.00 | 0.64 | 0.00 | 90 | 1012.5 |
| 20260502113302 | 11 | 326 | 6.4 | 9.7 | 0.00 | 0.64 | 0.00 | 90 | 1012.6 |
| 20260502113202 | 11 | 344 | 6.4 | 9.7 | 0.00 | 0.64 | 0.00 | 90 | 1012.5 |
| 20260502113104 | 11 | 334 | 6.4 | 9.7 | 0.00 | 0.64 | 0.00 | 90 | 1012.6 |
| 20260502113003 | 11 | 0 | 6.4 | 9.7 | 0.00 | 0.64 | 0.00 | 89 | 1012.5 |
| 20260502112904 | 11 | 358 | 4.8 | 9.7 | 0.00 | 0.64 | 0.00 | 89 | 1012.5 |
| 20260502112803 | 11 | 337 | 4.8 | 9.7 | 0.00 | 0.64 | 0.00 | 89 | 1012.4 |
| 20260502112701 | 11 | 347 | 6.4 | 9.7 | 0.00 | 0.64 | 0.00 | 89 | 1012.6 |
| 20260502112604 | 11 | 358 | 6.4 | 9.7 | 0.00 | 0.64 | 0.00 | 89 | 1012.4 |
| 20260502112502 | 11 | 324 | 6.4 | 9.7 | 0.00 | 0.64 | 0.00 | 89 | 1012.5 |
| 20260502112402 | 11 | 351 | 8.0 | 14.5 | 0.00 | 0.64 | 0.00 | 89 | 1012.5 |
| 20260502112305 | 11 | 344 | 6.4 | 14.5 | 0.00 | 0.64 | 0.00 | 89 | 1012.4 |
| 20260502112204 | 11 | 353 | 4.8 | 14.5 | 0.00 | 0.64 | 0.00 | 89 | 1012.4 |
| 20260502112103 | 11 | 354 | 4.8 | 14.5 | 0.00 | 0.64 | 0.00 | 89 | 1012.4 |
| 20260502112003 | 11 | 351 | 6.4 | 14.5 | 0.00 | 0.64 | 0.00 | 89 | 1012.3 |
| 20260502111903 | 11 | 354 | 6.4 | 14.5 | 0.00 | 0.64 | 0.00 | 89 | 1012.4 |
| 20260502111802 | 11 | 348 | 6.4 | 14.5 | 0.00 | 0.64 | 0.00 | 89 | 1012.3 |
| 20260502111703 | 11 | 354 | 6.4 | 14.5 | 0.00 | 0.64 | 0.00 | 89 | 1012.3 |
| 20260502111602 | 11 | 340 | 9.7 | 14.5 | 0.00 | 0.64 | 0.00 | 89 | 1012.4 |
| 20260502111504 | 11 | 351 | 9.7 | 14.5 | 0.00 | 0.64 | 0.00 | 89 | 1012.3 |
| 20260502111404 | 11 | 353 | 8.0 | 14.5 | 0.00 | 0.64 | 0.00 | 89 | 1012.4 |
| 20260502111302 | 11 | 344 | 8.0 | 14.5 | 0.00 | 0.64 | 0.00 | 89 | 1012.3 |
| 20260502111203 | 11 | 333 | 8.0 | 14.5 | 0.00 | 0.64 | 0.00 | 89 | 1012.4 |
| 20260502111102 | 11 | 305 | 9.7 | 16.1 | 0.00 | 0.64 | 0.00 | 89 | 1012.5 |
| 20260502111003 | 11 | 329 | 8.0 | 16.1 | 0.00 | 0.64 | 0.00 | 89 | 1012.4 |
| 20260502110903 | 11 | 329 | 6.4 | 16.1 | 0.00 | 0.64 | 0.00 | 89 | 1012.4 |
| 20260502110804 | 11 | 331 | 9.7 | 16.1 | 0.00 | 0.64 | 0.00 | 89 | 1012.4 |
| 20260502110704 | 11 | 347 | 11.3 | 16.1 | 0.00 | 0.64 | 0.00 | 89 | 1012.4 |
| 20260502110602 | 11 | 0 | 11.3 | 16.1 | 0.00 | 0.64 | 0.00 | 89 | 1012.3 |
| 20260502110504 | 11 | 336 | 9.7 | 16.1 | 0.00 | 0.64 | 0.00 | 89 | 1012.4 |
| 20260502110403 | 11 | 329 | 9.7 | 16.1 | 0.00 | 0.64 | 0.00 | 89 | 1012.3 |
| 20260502110303 | 11 | 340 | 9.7 | 16.1 | 0.00 | 0.64 | 0.00 | 89 | 1012.3 |
| 20260502110203 | 11 | 336 | 9.7 | 16.1 | 0.00 | 0.64 | 0.00 | 89 | 1012.3 |
| 20260502110103 | 11 | 344 | 8.0 | 14.5 | 0.00 | 0.64 | 0.00 | 88 | 1012.2 |
| 20260502110003 | 11 | 348 | 9.7 | 14.5 | 0.00 | 0.64 | 0.00 | 88 | 1012.2 |
| 20260502105902 | 11 | 340 | 9.7 | 14.5 | 0.00 | 0.66 | 0.00 | 88 | 1012.1 |
| 20260502105804 | 11 | 336 | 9.7 | 14.5 | 0.00 | 0.66 | 0.00 | 88 | 1012.1 |
| 20260502105703 | 11 | 344 | 9.7 | 14.5 | 0.00 | 0.66 | 0.00 | 88 | 1012.1 |
| 20260502105602 | 12 | 331 | 9.7 | 14.5 | 0.00 | 0.66 | 0.00 | 88 | 1012.1 |
| 20260502105504 | 12 | 330 | 8.0 | 14.5 | 0.00 | 0.66 | 0.00 | 88 | 1012.1 |
| 20260502105403 | 12 | 331 | 6.4 | 14.5 | 0.00 | 0.66 | 0.00 | 88 | 1012.1 |
| 20260502105305 | 12 | 329 | 8.0 | 14.5 | 0.00 | 0.66 | 0.00 | 88 | 1012.1 |
| 20260502105203 | 12 | 316 | 8.0 | 14.5 | 0.00 | 0.66 | 0.00 | 88 | 1012.1 |
| 20260502105103 | 12 | 299 | 9.7 | 14.5 | 0.00 | 0.66 | 0.00 | 88 | 1012.0 |
| 20260502105003 | 12 | 319 | 9.7 | 14.5 | 0.00 | 0.66 | 0.00 | 88 | 1012.1 |
| 20260502104903 | 12 | 326 | 9.7 | 14.5 | 0.00 | 0.66 | 0.00 | 88 | 1012.1 |
| 20260502104803 | 12 | 319 | 11.3 | 14.5 | 0.00 | 0.66 | 0.00 | 88 | 1012.1 |
| 20260502104703 | 12 | 347 | 9.7 | 14.5 | 0.00 | 0.66 | 0.00 | 88 | 1012.1 |
| 20260502104603 | 12 | 313 | 9.7 | 14.5 | 0.00 | 0.66 | 0.00 | 88 | 1012.1 |
| 20260502104503 | 12 | 319 | 8.0 | 14.5 | 0.00 | 0.69 | 0.00 | 87 | 1012.1 |
| 20260502104402 | 12 | 343 | 8.0 | 14.5 | 0.00 | 0.69 | 0.00 | 87 | 1012.1 |
| 20260502104303 | 12 | 351 | 8.0 | 14.5 | 0.00 | 0.69 | 0.00 | 87 | 1012.1 |
| 20260502104203 | 12 | 337 | 9.7 | 14.5 | 0.00 | 0.69 | 0.00 | 88 | 1012.1 |
| 20260502104102 | 12 | 345 | 9.7 | 14.5 | 0.00 | 0.69 | 0.00 | 87 | 1012.1 |
| 20260502104004 | 12 | 319 | 8.0 | 14.5 | 0.00 | 0.69 | 0.00 | 87 | 1012.1 |
| 20260502103901 | 12 | 334 | 8.0 | 14.5 | 0.00 | 0.69 | 0.00 | 87 | 1012.1 |
| 20260502103803 | 12 | 329 | 9.7 | 14.5 | 0.00 | 0.69 | 0.00 | 87 | 1012.1 |
| 20260502103703 | 12 | 347 | 9.7 | 14.5 | 0.00 | 0.69 | 0.00 | 87 | 1012.0 |
| 20260502103603 | 12 | 345 | 9.7 | 14.5 | 0.00 | 0.69 | 0.00 | 87 | 1012.0 |
| 20260502103502 | 12 | 334 | 8.0 | 11.3 | 0.00 | 0.69 | 0.00 | 87 | 1012.0 |
| 20260502103403 | 12 | 333 | 6.4 | 14.5 | 0.00 | 0.69 | 0.00 | 87 | 1012.0 |
| 20260502103303 | 12 | 345 | 6.4 | 14.5 | 0.00 | 0.69 | 0.00 | 87 | 1011.9 |
| 20260502103203 | 12 | 348 | 6.4 | 14.5 | 0.00 | 0.69 | 0.00 | 87 | 1011.9 |
| 20260502103104 | 12 | 351 | 8.0 | 14.5 | 0.00 | 0.69 | 0.00 | 87 | 1011.9 |
| 20260502103003 | 12 | 345 | 9.7 | 14.5 | 0.00 | 0.69 | 0.00 | 87 | 1011.9 |
| 20260502102903 | 12 | 345 | 9.7 | 16.1 | 0.00 | 0.69 | 0.00 | 87 | 1011.9 |
| 20260502102804 | 12 | 0 | 9.7 | 16.1 | 0.00 | 0.69 | 0.00 | 87 | 1011.9 |
| 20260502102702 | 12 | 353 | 8.0 | 16.1 | 0.00 | 0.69 | 0.00 | 87 | 1011.8 |
| 20260502102602 | 12 | 354 | 8.0 | 16.1 | 0.00 | 0.69 | 0.00 | 87 | 1011.8 |
| 20260502102503 | 12 | 0 | 8.0 | 16.1 | 0.00 | 0.69 | 0.00 | 87 | 1011.8 |
| 20260502102403 | 12 | 0 | 9.7 | 16.1 | 0.00 | 0.69 | 0.00 | 87 | 1011.9 |
| 20260502102306 | 12 | 354 | 11.3 | 16.1 | 0.00 | 0.69 | 0.00 | 87 | 1011.8 |
| 20260502102204 | 12 | 333 | 9.7 | 16.1 | 0.00 | 0.69 | 0.00 | 87 | 1011.9 |
| 20260502102103 | 12 | 340 | 9.7 | 16.1 | 0.00 | 0.69 | 0.00 | 87 | 1011.9 |
| 20260502102004 | 12 | 355 | 9.7 | 16.1 | 0.00 | 0.69 | 0.00 | 87 | 1011.9 |
| 20260502101904 | 12 | 0 | 9.7 | 16.1 | 0.00 | 0.69 | 0.00 | 87 | 1011.9 |
| 20260502101802 | 12 | 347 | 9.7 | 16.1 | 0.00 | 0.69 | 0.00 | 87 | 1011.8 |
| 20260502101704 | 12 | 355 | 9.7 | 16.1 | 0.00 | 0.69 | 0.00 | 87 | 1011.8 |
| 20260502101603 | 12 | 354 | 9.7 | 16.1 | 0.00 | 0.69 | 0.00 | 87 | 1011.8 |
| 20260502101502 | 12 | 340 | 8.0 | 16.1 | 0.00 | 0.71 | 0.00 | 87 | 1011.8 |
| 20260502101354 | 12 | 3 | 9.7 | 16.1 | 0.00 | 0.71 | 0.00 | 87 | 1011.7 |
| 20260502101252 | 12 | 351 | 9.7 | 16.1 | 0.00 | 0.71 | 0.00 | 87 | 1011.7 |
| 20260502101148 | 12 | 337 | 8.0 | 16.1 | 0.00 | 0.71 | 0.00 | 87 | 1011.7 |
| 20260502101049 | 12 | 357 | 8.0 | 16.1 | 0.00 | 0.71 | 0.00 | 87 | 1011.7 |
| 20260502100947 | 12 | 350 | 8.0 | 11.3 | 0.00 | 0.71 | 0.00 | 87 | 1011.7 |
| 20260502100845 | 12 | 345 | 6.4 | 11.3 | 0.00 | 0.71 | 0.00 | 87 | 1011.6 |
| 20260502100742 | 12 | 0 | 6.4 | 11.3 | 0.00 | 0.71 | 0.00 | 87 | 1011.7 |
| 20260502100638 | 12 | 11 | 6.4 | 11.3 | 0.00 | 0.71 | 0.00 | 87 | 1011.6 |
| 20260502100532 | 12 | 348 | 8.0 | 11.3 | 0.00 | 0.71 | 0.00 | 87 | 1011.6 |
| 20260502100430 | 12 | 0 | 8.0 | 11.3 | 0.00 | 0.71 | 0.00 | 87 | 1011.5 |
| 20260502100332 | 12 | 345 | 8.0 | 11.3 | 0.00 | 0.71 | 0.00 | 87 | 1011.5 |
| 20260502100231 | 12 | 7 | 8.0 | 11.3 | 0.00 | 0.74 | 0.00 | 87 | 1011.5 |
| 20260502100130 | 12 | 338 | 8.0 | 11.3 | 0.00 | 0.74 | 0.00 | 87 | 1011.5 |
| 20260502091527 | 12 | 13 | 8.0 | 17.7 | 0.00 | 0.81 | 0.00 | 85 | 1010.6 |
| 20260502091428 | 12 | 354 | 6.4 | 17.7 | 0.00 | 0.81 | 0.00 | 85 | 1010.5 |
| 20260502091328 | 12 | 21 | 6.4 | 17.7 | 0.00 | 0.81 | 0.00 | 85 | 1010.6 |
| 20260502091226 | 12 | 23 | 6.4 | 17.7 | 0.00 | 0.81 | 0.00 | 85 | 1010.5 |
| 20260502091128 | 12 | 21 | 8.0 | 17.7 | 0.00 | 0.81 | 0.00 | 85 | 1010.5 |
| 20260502091027 | 12 | 21 | 9.7 | 17.7 | 0.00 | 0.81 | 0.00 | 85 | 1010.4 |
| 20260502090926 | 13 | 8 | 9.7 | 17.7 | 0.00 | 0.81 | 0.00 | 85 | 1010.4 |
| 20260502090827 | 12 | 42 | 8.0 | 17.7 | 0.00 | 0.81 | 0.00 | 85 | 1010.5 |
| 20260502090726 | 12 | 13 | 6.4 | 14.5 | 0.00 | 0.84 | 0.00 | 85 | 1010.4 |
| 20260502090628 | 13 | 10 | 8.0 | 14.5 | 0.00 | 0.84 | 0.00 | 85 | 1010.5 |
| 20260502090528 | 13 | 24 | 8.0 | 14.5 | 0.00 | 0.84 | 0.00 | 85 | 1010.4 |
| 20260502090428 | 13 | 0 | 6.4 | 11.3 | 0.00 | 0.84 | 0.00 | 85 | 1010.5 |
| 20260502090328 | 13 | 0 | 8.0 | 11.3 | 0.00 | 0.84 | 0.00 | 85 | 1010.4 |
| 20260502090226 | 13 | 39 | 8.0 | 11.3 | 0.00 | 0.84 | 0.00 | 85 | 1010.4 |
| 20260502090127 | 13 | 17 | 6.4 | 11.3 | 0.00 | 0.84 | 0.00 | 85 | 1010.4 |
| 20260502080103 | 13 | 11 | 11.3 | 19.3 | 0.00 | 0.97 | 0.00 | 87 | 1010.1 |
| 20260502071533 | 13 | 0 | 9.7 | 22.5 | 0.00 | 1.04 | 0.00 | 88 | 1010.2 |
| 20260502071432 | 13 | 324 | 9.7 | 22.5 | 0.00 | 1.04 | 0.00 | 88 | 1010.2 |
| 20260502071332 | 13 | 27 | 9.7 | 22.5 | 0.00 | 1.04 | 0.00 | 88 | 1010.1 |
| 20260502071231 | 13 | 51 | 8.0 | 22.5 | 0.00 | 1.04 | 0.00 | 88 | 1010.1 |
| 20260502071132 | 13 | 38 | 8.0 | 22.5 | 0.00 | 1.04 | 0.00 | 88 | 1010.1 |
| 20260502071033 | 13 | 0 | 11.3 | 22.5 | 0.00 | 1.04 | 0.00 | 88 | 1010.2 |
| 20260502070931 | 13 | 14 | 12.9 | 22.5 | 0.00 | 1.04 | 0.00 | 88 | 1010.2 |
| 20260502070832 | 13 | 0 | 11.3 | 22.5 | 0.00 | 1.04 | 0.00 | 88 | 1010.2 |
| 20260502070732 | 13 | 25 | 8.0 | 17.7 | 0.00 | 1.04 | 0.00 | 89 | 1010.3 |
| 20260502070631 | 13 | 0 | 9.7 | 17.7 | 0.00 | 1.04 | 0.00 | 88 | 1010.3 |
| 20260502070532 | 13 | 20 | 11.3 | 17.7 | 0.00 | 1.04 | 0.00 | 88 | 1010.3 |
| 20260502070431 | 13 | 25 | 14.5 | 17.7 | 0.00 | 1.04 | 0.00 | 89 | 1010.3 |
| 20260502070331 | 13 | 4 | 11.3 | 19.3 | 0.00 | 1.04 | 0.00 | 89 | 1010.3 |
| 20260502070232 | 13 | 16 | 11.3 | 19.3 | 0.00 | 1.04 | 0.00 | 89 | 1010.4 |
| 20260502070132 | 13 | 16 | 11.3 | 19.3 | 0.00 | 1.04 | 0.00 | 89 | 1010.4 |
| 20260502070026 | 13 | 16 | 11.3 | 19.3 | 0.00 | 1.04 | 0.00 | 89 | 1010.4 |
| 20260502065923 | 13 | 0 | 9.7 | 19.3 | 0.00 | 1.04 | 0.00 | 89 | 1010.5 |
| 20260502065823 | 13 | 0 | 9.7 | 19.3 | 0.00 | 1.04 | 0.00 | 89 | 1010.5 |
| 20260502065723 | 13 | 10 | 11.3 | 19.3 | 0.00 | 1.04 | 0.00 | 89 | 1010.6 |
| 20260502065625 | 13 | 350 | 12.9 | 19.3 | 0.00 | 1.04 | 0.00 | 89 | 1010.6 |
| 20260502065523 | 13 | 348 | 11.3 | 19.3 | 0.00 | 1.04 | 0.00 | 89 | 1010.5 |
| 20260502065425 | 13 | 3 | 8.0 | 17.7 | 0.00 | 1.04 | 0.00 | 89 | 1010.5 |
| 20260502065323 | 13 | 0 | 9.7 | 17.7 | 0.00 | 1.04 | 0.00 | 89 | 1010.5 |
| 20260502065223 | 13 | 14 | 8.0 | 17.7 | 0.00 | 1.04 | 0.00 | 89 | 1010.5 |
| 20260502065123 | 13 | 0 | 6.4 | 17.7 | 0.00 | 1.04 | 0.00 | 89 | 1010.4 |
| 20260502065023 | 13 | 354 | 4.8 | 17.7 | 0.00 | 1.04 | 0.00 | 89 | 1010.3 |
| 20260502064924 | 13 | 35 | 6.4 | 17.7 | 0.00 | 1.04 | 0.00 | 89 | 1010.3 |
| 20260502064825 | 13 | 3 | 8.0 | 17.7 | 0.00 | 1.04 | 0.00 | 88 | 1010.4 |
| 20260502064723 | 13 | 0 | 8.0 | 17.7 | 0.00 | 1.04 | 0.00 | 88 | 1010.3 |
| 20260502064623 | 13 | 357 | 9.7 | 17.7 | 0.00 | 1.04 | 0.00 | 89 | 1010.2 |
| 20260502064525 | 13 | 355 | 9.7 | 17.7 | 0.00 | 1.04 | 0.00 | 89 | 1010.3 |
| 20260502064425 | 13 | 21 | 8.0 | 17.7 | 0.00 | 1.04 | 0.00 | 88 | 1010.3 |
| 20260502064324 | 13 | 344 | 9.7 | 17.7 | 0.00 | 1.04 | 0.00 | 88 | 1010.3 |
| 20260502064224 | 13 | 0 | 9.7 | 17.7 | 0.00 | 1.04 | 0.00 | 88 | 1010.4 |
| 20260502064124 | 13 | 31 | 8.0 | 17.7 | 0.00 | 1.04 | 0.00 | 88 | 1010.4 |
| 20260502064026 | 13 | 354 | 9.7 | 17.7 | 0.00 | 1.04 | 0.00 | 88 | 1010.3 |
| 20260502063925 | 13 | 0 | 9.7 | 17.7 | 0.00 | 1.04 | 0.00 | 88 | 1010.4 |
| 20260502063824 | 13 | 0 | 9.7 | 17.7 | 0.00 | 1.04 | 0.00 | 88 | 1010.4 |
| 20260502063726 | 13 | 4 | 9.7 | 17.7 | 0.00 | 1.04 | 0.00 | 88 | 1010.4 |
| 20260502063625 | 13 | 345 | 9.7 | 17.7 | 0.00 | 1.04 | 0.00 | 88 | 1010.4 |
| 20260502063524 | 13 | 0 | 9.7 | 17.7 | 0.00 | 1.04 | 0.00 | 88 | 1010.4 |
| 20260502063423 | 13 | 347 | 9.7 | 17.7 | 0.00 | 1.04 | 0.00 | 88 | 1010.3 |
| 20260502063323 | 13 | 0 | 11.3 | 17.7 | 0.00 | 1.04 | 0.00 | 88 | 1010.3 |
| 20260502063224 | 13 | 14 | 11.3 | 17.7 | 0.00 | 1.04 | 0.00 | 89 | 1010.4 |
| 20260502063124 | 13 | 23 | 9.7 | 16.1 | 0.00 | 1.04 | 0.00 | 88 | 1010.3 |
| 20260502063024 | 13 | 345 | 9.7 | 16.1 | 0.00 | 1.04 | 0.00 | 88 | 1010.3 |
| 20260502062925 | 13 | 0 | 9.7 | 17.7 | 0.00 | 1.04 | 0.00 | 88 | 1010.3 |
| 20260502062823 | 13 | 13 | 11.3 | 17.7 | 0.00 | 1.04 | 0.00 | 89 | 1010.3 |
| 20260502062722 | 13 | 0 | 11.3 | 17.7 | 0.00 | 1.04 | 0.00 | 89 | 1010.3 |
| 20260502062623 | 13 | 357 | 11.3 | 17.7 | 0.00 | 1.04 | 0.00 | 89 | 1010.2 |
| 20260502062523 | 13 | 8 | 8.0 | 17.7 | 0.00 | 1.04 | 0.00 | 89 | 1010.2 |
| 20260502062425 | 13 | 7 | 8.0 | 20.9 | 0.00 | 1.04 | 0.00 | 89 | 1010.3 |
| 20260502062325 | 13 | 345 | 9.7 | 20.9 | 0.00 | 1.04 | 0.00 | 89 | 1010.3 |
| 20260502062223 | 13 | 0 | 9.7 | 20.9 | 0.00 | 1.04 | 0.00 | 89 | 1010.3 |
| 20260502062123 | 13 | 7 | 12.9 | 20.9 | 0.00 | 1.04 | 0.00 | 88 | 1010.2 |
| 20260502062024 | 13 | 353 | 12.9 | 20.9 | 0.00 | 1.04 | 0.00 | 89 | 1010.1 |
| 20260502061922 | 13 | 14 | 11.3 | 20.9 | 0.00 | 1.04 | 0.00 | 89 | 1010.2 |
| 20260502061823 | 13 | 354 | 11.3 | 20.9 | 0.00 | 1.04 | 0.00 | 89 | 1010.2 |
| 20260502061723 | 13 | 31 | 12.9 | 24.1 | 0.00 | 1.04 | 0.00 | 89 | 1010.1 |
| 20260502061624 | 13 | 0 | 12.9 | 24.1 | 0.00 | 1.04 | 0.00 | 89 | 1010.2 |
| 20260502061522 | 13 | 7 | 11.3 | 24.1 | 0.00 | 1.04 | 0.00 | 89 | 1010.2 |
| 20260502061422 | 13 | 6 | 9.7 | 24.1 | 0.00 | 1.04 | 0.00 | 89 | 1010.1 |
| 20260502061322 | 13 | 4 | 11.3 | 24.1 | 0.00 | 1.04 | 0.00 | 89 | 1010.2 |
| 20260502061222 | 13 | 336 | 12.9 | 24.1 | 0.00 | 1.04 | 0.00 | 89 | 1010.1 |
| 20260502061124 | 13 | 0 | 12.9 | 24.1 | 0.00 | 1.04 | 0.00 | 89 | 1010.2 |
| 20260502061024 | 13 | 0 | 12.9 | 24.1 | 0.00 | 1.04 | 0.00 | 89 | 1010.2 |
| 20260502060922 | 13 | 0 | 14.5 | 24.1 | 0.00 | 1.04 | 0.00 | 89 | 1010.1 |
| 20260502060823 | 13 | 351 | 14.5 | 24.1 | 0.00 | 1.04 | 0.00 | 89 | 1010.1 |
| 20260502060722 | 13 | 340 | 11.3 | 20.9 | 0.00 | 1.04 | 0.00 | 89 | 1010.2 |
| 20260502060622 | 13 | 331 | 9.7 | 20.9 | 0.00 | 1.04 | 0.00 | 89 | 1010.2 |
| 20260502060522 | 13 | 0 | 11.3 | 20.9 | 0.00 | 1.04 | 0.00 | 89 | 1010.2 |
| 20260502060423 | 13 | 345 | 9.7 | 20.9 | 0.00 | 1.04 | 0.00 | 89 | 1010.0 |
| 20260502060325 | 13 | 344 | 9.7 | 20.9 | 0.00 | 1.04 | 0.00 | 89 | 1010.1 |
| 20260502060224 | 13 | 0 | 11.3 | 20.9 | 0.00 | 1.04 | 0.00 | 89 | 1010.1 |
| 20260502060123 | 13 | 6 | 12.9 | 20.9 | 0.00 | 1.04 | 0.00 | 89 | 1010.2 |
| 20260502060022 | 13 | 8 | 11.3 | 20.9 | 0.00 | 1.04 | 0.00 | 89 | 1010.1 |
| 20260502055922 | 13 | 72 | 9.7 | 20.9 | 0.00 | 1.04 | 0.00 | 89 | 1010.1 |
| 20260502055822 | 13 | 0 | 9.7 | 20.9 | 0.00 | 1.04 | 0.00 | 89 | 1010.1 |
| 20260502055722 | 13 | 6 | 11.3 | 20.9 | 0.00 | 1.04 | 0.00 | 89 | 1010.1 |
| 20260502055623 | 13 | 0 | 11.3 | 20.9 | 0.00 | 1.04 | 0.00 | 89 | 1010.2 |
| 20260502055523 | 13 | 24 | 9.7 | 20.9 | 0.00 | 1.04 | 0.00 | 89 | 1010.0 |
| 20260502055421 | 13 | 11 | 8.0 | 19.3 | 0.00 | 1.04 | 0.00 | 89 | 1010.1 |
| 20260502055323 | 13 | 341 | 8.0 | 19.3 | 0.00 | 1.04 | 0.00 | 89 | 1010.1 |
| 20260502055224 | 13 | 348 | 8.0 | 20.9 | 0.00 | 1.04 | 0.00 | 89 | 1010.1 |
| 20260502055123 | 13 | 0 | 8.0 | 22.5 | 0.00 | 1.04 | 0.00 | 89 | 1010.1 |
| 20260502055024 | 13 | 344 | 9.7 | 24.1 | 0.00 | 1.04 | 0.00 | 89 | 1010.0 |
| 20260502054922 | 13 | 0 | 9.7 | 24.1 | 0.00 | 1.04 | 0.00 | 89 | 1010.1 |
| 20260502054822 | 13 | 358 | 12.9 | 24.1 | 0.00 | 1.04 | 0.00 | 89 | 1010.2 |
| 20260502054724 | 13 | 350 | 14.5 | 24.1 | 0.00 | 1.04 | 0.00 | 89 | 1010.1 |
| 20260502054621 | 13 | 350 | 12.9 | 24.1 | 0.00 | 1.04 | 0.00 | 89 | 1010.2 |
| 20260502054523 | 13 | 0 | 12.9 | 24.1 | 0.00 | 1.04 | 0.00 | 89 | 1010.2 |
| 20260502054423 | 13 | 0 | 16.1 | 24.1 | 0.00 | 1.04 | 0.00 | 89 | 1010.2 |
| 20260502054323 | 13 | 351 | 17.7 | 24.1 | 0.00 | 1.04 | 0.00 | 89 | 1010.2 |
| 20260502054224 | 13 | 329 | 16.1 | 24.1 | 0.00 | 1.04 | 0.00 | 89 | 1010.2 |
| 20260502054123 | 13 | 8 | 14.5 | 24.1 | 0.00 | 1.04 | 0.00 | 89 | 1010.2 |
| 20260502054024 | 13 | 354 | 14.5 | 20.9 | 0.00 | 1.04 | 0.00 | 89 | 1010.2 |
| 20260502053923 | 13 | 358 | 14.5 | 20.9 | 0.00 | 1.04 | 0.00 | 89 | 1010.3 |
| 20260502053823 | 13 | 0 | 14.5 | 22.5 | 0.00 | 1.04 | 0.00 | 89 | 1010.2 |
| 20260502053722 | 13 | 354 | 12.9 | 24.1 | 0.00 | 1.04 | 0.00 | 89 | 1010.2 |
| 20260502053621 | 13 | 0 | 11.3 | 24.1 | 0.00 | 1.04 | 0.00 | 89 | 1010.3 |
| 20260502053521 | 13 | 0 | 11.3 | 24.1 | 0.00 | 1.04 | 0.00 | 89 | 1010.2 |
| 20260502053423 | 13 | 34 | 11.3 | 24.1 | 0.00 | 1.04 | 0.00 | 89 | 1010.3 |
| 20260502053323 | 13 | 8 | 12.9 | 24.1 | 0.00 | 1.04 | 0.00 | 89 | 1010.2 |
| 20260502053222 | 13 | 326 | 11.3 | 24.1 | 0.00 | 1.04 | 0.00 | 89 | 1010.2 |
| 20260502053122 | 13 | 0 | 11.3 | 24.1 | 0.00 | 1.07 | 0.00 | 89 | 1010.3 |
| 20260502053021 | 13 | 353 | 12.9 | 25.7 | 0.00 | 1.07 | 0.00 | 89 | 1010.2 |
| 20260502052922 | 13 | 34 | 16.1 | 25.7 | 0.00 | 1.07 | 0.00 | 89 | 1010.1 |
| 20260502052822 | 13 | 0 | 16.1 | 25.7 | 0.00 | 1.07 | 0.00 | 89 | 1010.1 |
| 20260502052722 | 13 | 8 | 14.5 | 25.7 | 0.00 | 1.07 | 0.00 | 89 | 1010.2 |
| 20260502052621 | 13 | 20 | 9.7 | 25.7 | 0.00 | 1.07 | 0.00 | 89 | 1010.1 |
| 20260502052521 | 13 | 0 | 8.0 | 25.7 | 0.00 | 1.07 | 0.00 | 89 | 1010.0 |
| 20260502052421 | 13 | 21 | 9.7 | 25.7 | 0.00 | 1.07 | 0.00 | 89 | 1010.0 |
| 20260502052321 | 13 | 358 | 11.3 | 25.7 | 0.00 | 1.07 | 0.00 | 89 | 1009.9 |
| 20260502052223 | 13 | 34 | 14.5 | 25.7 | 0.00 | 1.07 | 0.00 | 89 | 1009.9 |
| 20260502052123 | 13 | 6 | 17.7 | 25.7 | 0.00 | 1.07 | 0.00 | 89 | 1010.0 |
| 20260502052022 | 13 | 4 | 17.7 | 25.7 | 0.00 | 1.07 | 0.00 | 89 | 1010.0 |
| 20260502051923 | 13 | 25 | 16.1 | 25.7 | 0.00 | 1.07 | 0.00 | 89 | 1010.0 |
| 20260502051822 | 13 | 0 | 14.5 | 25.7 | 0.00 | 1.07 | 0.00 | 89 | 1010.0 |
| 20260502051722 | 13 | 357 | 12.9 | 25.7 | 0.00 | 1.09 | 0.00 | 89 | 1010.0 |
| 20260502051621 | 13 | 357 | 12.9 | 25.7 | 0.00 | 1.09 | 0.00 | 89 | 1010.0 |
| 20260502051521 | 13 | 16 | 12.9 | 25.7 | 0.00 | 1.09 | 0.00 | 90 | 1009.9 |
| 20260502051422 | 13 | 0 | 14.5 | 25.7 | 0.00 | 1.09 | 0.00 | 90 | 1009.9 |
| 20260502051322 | 13 | 338 | 14.5 | 25.7 | 0.00 | 1.09 | 0.00 | 90 | 1010.0 |
| 20260502051222 | 13 | 0 | 12.9 | 25.7 | 0.00 | 1.09 | 0.00 | 90 | 1010.0 |
| 20260502051124 | 13 | 351 | 12.9 | 25.7 | 0.00 | 1.09 | 0.00 | 90 | 1010.0 |
| 20260502051021 | 13 | 350 | 12.9 | 25.7 | 0.00 | 1.09 | 0.00 | 90 | 1009.9 |
| 20260502050923 | 13 | 357 | 12.9 | 25.7 | 0.00 | 1.09 | 0.00 | 90 | 1009.9 |
| 20260502050821 | 13 | 0 | 12.9 | 25.7 | 0.00 | 1.09 | 0.00 | 89 | 1010.1 |
| 20260502050721 | 13 | 0 | 16.1 | 25.7 | 0.00 | 1.09 | 0.00 | 89 | 1010.0 |
| 20260502050623 | 13 | 21 | 17.7 | 25.7 | 0.00 | 1.09 | 0.00 | 90 | 1010.0 |
| 20260502050523 | 13 | 0 | 16.1 | 22.5 | 0.00 | 1.12 | 0.00 | 90 | 1010.1 |
| 20260502050422 | 13 | 0 | 17.7 | 24.1 | 0.00 | 1.12 | 0.00 | 90 | 1010.0 |
| 20260502050320 | 13 | 0 | 17.7 | 24.1 | 0.00 | 1.12 | 0.00 | 90 | 1010.1 |
| 20260502050221 | 13 | 0 | 16.1 | 24.1 | 0.00 | 1.12 | 0.00 | 90 | 1010.0 |
| 20260502050123 | 13 | 350 | 12.9 | 24.1 | 0.00 | 1.12 | 0.00 | 90 | 1010.0 |
| 20260502050022 | 13 | 4 | 12.9 | 24.1 | 0.00 | 1.12 | 0.00 | 90 | 1010.0 |
| 20260502045922 | 13 | 344 | 11.3 | 27.4 | 0.00 | 1.12 | 1.12 | 90 | 1009.9 |
| 20260502045822 | 13 | 351 | 9.7 | 27.4 | 0.00 | 1.12 | 1.12 | 90 | 1009.8 |
| 20260502045721 | 13 | 0 | 9.7 | 27.4 | 0.00 | 1.12 | 1.12 | 90 | 1009.9 |
| 20260502045620 | 13 | 0 | 14.5 | 27.4 | 0.00 | 1.14 | 1.12 | 90 | 1009.8 |
| 20260502045522 | 13 | 3 | 16.1 | 27.4 | 0.00 | 1.14 | 1.12 | 90 | 1009.8 |
| 20260502045421 | 13 | 13 | 14.5 | 27.4 | 0.00 | 1.14 | 1.12 | 90 | 1009.9 |
| 20260502045322 | 13 | 27 | 14.5 | 27.4 | 0.00 | 1.14 | 1.12 | 90 | 1009.8 |
| 20260502045220 | 13 | 0 | 16.1 | 27.4 | 0.00 | 1.14 | 1.12 | 90 | 1009.8 |
| 20260502045122 | 13 | 0 | 16.1 | 27.4 | 0.00 | 1.14 | 1.12 | 90 | 1009.7 |
| 20260502045021 | 13 | 14 | 14.5 | 27.4 | 0.00 | 1.14 | 1.12 | 90 | 1009.7 |
| 20260502044921 | 13 | 340 | 16.1 | 25.7 | 0.00 | 1.14 | 1.12 | 90 | 1009.8 |
| 20260502044821 | 13 | 3 | 16.1 | 25.7 | 0.00 | 1.14 | 1.12 | 90 | 1009.7 |
| 20260502044721 | 13 | 6 | 14.5 | 25.7 | 0.00 | 1.14 | 1.12 | 90 | 1009.9 |
| 20260502044622 | 13 | 3 | 16.1 | 22.5 | 0.00 | 1.14 | 1.12 | 90 | 1009.7 |
| 20260502044521 | 13 | 0 | 14.5 | 25.7 | 0.00 | 1.14 | 1.12 | 90 | 1009.7 |
| 20260502044420 | 13 | 32 | 12.9 | 25.7 | 0.00 | 1.14 | 1.12 | 90 | 1009.6 |
| 20260502044321 | 13 | 17 | 14.5 | 25.7 | 0.00 | 1.14 | 1.12 | 90 | 1009.7 |
| 20260502044221 | 13 | 358 | 12.9 | 25.7 | 0.00 | 1.14 | 1.12 | 90 | 1009.7 |
| 20260502044120 | 13 | 23 | 12.9 | 25.7 | 0.00 | 1.17 | 1.12 | 90 | 1009.6 |
| 20260502044020 | 13 | 355 | 12.9 | 25.7 | 0.00 | 1.17 | 1.12 | 90 | 1009.7 |
| 20260502043921 | 13 | 14 | 12.9 | 25.7 | 0.00 | 1.17 | 1.12 | 90 | 1009.7 |
| 20260502043822 | 13 | 7 | 12.9 | 25.7 | 0.00 | 1.17 | 1.12 | 90 | 1009.7 |
| 20260502043722 | 13 | 13 | 19.3 | 25.7 | 0.00 | 1.17 | 1.12 | 90 | 1009.6 |
| 20260502043617 | 13 | 11 | 19.3 | 25.7 | 0.00 | 1.17 | 1.12 | 90 | 1009.7 |
| 20260502043516 | 13 | 1 | 16.1 | 24.1 | 0.00 | 1.17 | 1.12 | 90 | 1009.6 |
| 20260502043411 | 13 | 20 | 14.5 | 20.9 | 0.00 | 1.17 | 1.12 | 90 | 1009.7 |
| 20260502043305 | 13 | 0 | 12.9 | 19.3 | 0.00 | 1.17 | 1.12 | 90 | 1009.7 |
| 20260502043203 | 13 | 354 | 12.9 | 19.3 | 0.00 | 1.17 | 1.12 | 90 | 1009.6 |
| 20260502043103 | 13 | 8 | 11.3 | 22.5 | 0.00 | 1.17 | 1.12 | 90 | 1009.7 |
| 20260502043003 | 13 | 3 | 11.3 | 22.5 | 0.00 | 1.17 | 1.12 | 90 | 1009.7 |
| 20260502042904 | 13 | 4 | 11.3 | 22.5 | 0.00 | 1.17 | 1.12 | 90 | 1009.7 |
| 20260502042804 | 13 | 23 | 11.3 | 22.5 | 0.00 | 1.17 | 1.12 | 90 | 1009.7 |
| 20260502042703 | 13 | 8 | 11.3 | 22.5 | 0.00 | 1.17 | 1.12 | 90 | 1009.8 |
| 20260502042604 | 13 | 357 | 12.9 | 22.5 | 0.00 | 1.17 | 1.12 | 90 | 1009.8 |
| 20260502042503 | 13 | 340 | 12.9 | 22.5 | 0.00 | 1.17 | 1.12 | 90 | 1009.8 |
| 20260502042403 | 13 | 1 | 14.5 | 22.5 | 0.00 | 1.17 | 1.12 | 90 | 1009.9 |
| 20260502042305 | 13 | 31 | 12.9 | 22.5 | 0.00 | 1.17 | 1.12 | 90 | 1009.9 |
| 20260502042201 | 13 | 341 | 11.3 | 22.5 | 0.00 | 1.17 | 1.12 | 90 | 1009.9 |
| 20260502042103 | 13 | 0 | 12.9 | 20.9 | 0.00 | 1.17 | 1.12 | 90 | 1009.9 |
| 20260502042003 | 13 | 0 | 14.5 | 20.9 | 0.00 | 1.17 | 1.12 | 90 | 1009.8 |
| 20260502041903 | 13 | 30 | 14.5 | 20.9 | 0.00 | 1.17 | 1.12 | 90 | 1009.9 |
| 20260502041804 | 13 | 27 | 14.5 | 20.9 | 0.00 | 1.17 | 1.12 | 90 | 1009.9 |
| 20260502041703 | 13 | 0 | 11.3 | 22.5 | 0.00 | 1.17 | 1.12 | 90 | 1010.0 |
| 20260502041605 | 13 | 16 | 11.3 | 22.5 | 0.00 | 1.17 | 1.12 | 90 | 1009.9 |
| 20260502041504 | 13 | 0 | 11.3 | 22.5 | 0.00 | 1.17 | 1.12 | 90 | 1009.9 |
| 20260502041401 | 13 | 1 | 9.7 | 22.5 | 0.00 | 1.17 | 1.12 | 90 | 1009.8 |
| 20260502041304 | 13 | 3 | 11.3 | 22.5 | 0.00 | 1.17 | 1.12 | 90 | 1009.8 |
| 20260502041203 | 13 | 0 | 11.3 | 22.5 | 0.00 | 1.17 | 1.12 | 90 | 1009.8 |
| 20260502041104 | 13 | 0 | 14.5 | 22.5 | 0.00 | 1.17 | 1.12 | 90 | 1009.9 |
| 20260502041002 | 13 | 344 | 14.5 | 22.5 | 0.00 | 1.17 | 1.12 | 90 | 1009.8 |
| 20260502040902 | 13 | 0 | 16.1 | 22.5 | 0.00 | 1.17 | 1.12 | 90 | 1009.7 |
| 20260502040802 | 13 | 350 | 16.1 | 22.5 | 0.00 | 1.17 | 1.12 | 90 | 1009.7 |
| 20260502040704 | 13 | 6 | 12.9 | 24.1 | 0.00 | 1.17 | 1.12 | 90 | 1009.7 |
| 20260502040602 | 13 | 0 | 12.9 | 24.1 | 0.00 | 1.17 | 1.12 | 90 | 1009.7 |
| 20260502040502 | 13 | 355 | 11.3 | 25.7 | 0.00 | 1.17 | 1.12 | 90 | 1009.7 |
| 20260502040403 | 13 | 0 | 12.9 | 25.7 | 0.00 | 1.17 | 1.12 | 90 | 1009.7 |
| 20260502040302 | 13 | 0 | 14.5 | 25.7 | 0.00 | 1.17 | 1.12 | 90 | 1009.7 |
| 20260502040203 | 13 | 327 | 16.1 | 25.7 | 0.00 | 1.17 | 1.12 | 90 | 1009.6 |
| 20260502040004 | 13 | 0 | 16.1 | 25.7 | 0.00 | 1.17 | 1.12 | 90 | 1009.6 |
| 20260502035901 | 13 | 350 | 16.1 | 32.2 | 0.00 | 1.17 | 1.12 | 90 | 1009.6 |
| 20260502035803 | 13 | 355 | 16.1 | 32.2 | 0.00 | 1.17 | 1.12 | 90 | 1009.6 |
| 20260502035703 | 13 | 0 | 16.1 | 32.2 | 0.00 | 1.17 | 1.12 | 90 | 1009.6 |
| 20260502035603 | 13 | 1 | 14.5 | 32.2 | 0.00 | 1.17 | 1.12 | 90 | 1009.6 |
| 20260502035503 | 13 | 354 | 14.5 | 32.2 | 0.00 | 1.17 | 1.12 | 90 | 1009.6 |
| 20260502035402 | 13 | 0 | 16.1 | 32.2 | 0.00 | 1.17 | 1.12 | 90 | 1009.6 |
| 20260502035306 | 13 | 0 | 14.5 | 32.2 | 0.00 | 1.17 | 1.12 | 90 | 1009.7 |
| 20260502035202 | 13 | 0 | 14.5 | 32.2 | 0.00 | 1.17 | 1.12 | 90 | 1009.6 |
| 20260502035104 | 13 | 357 | 17.7 | 32.2 | 0.00 | 1.17 | 1.12 | 90 | 1009.8 |
| 20260502035004 | 13 | 358 | 17.7 | 32.2 | 0.00 | 1.17 | 1.12 | 90 | 1009.9 |
| 20260502034902 | 13 | 0 | 16.1 | 29.0 | 0.00 | 1.17 | 1.12 | 91 | 1009.8 |
| 20260502034803 | 13 | 0 | 14.5 | 29.0 | 0.00 | 1.17 | 1.12 | 91 | 1009.8 |
| 20260502034703 | 13 | 20 | 14.5 | 29.0 | 0.00 | 1.17 | 1.12 | 91 | 1009.9 |
| 20260502034604 | 13 | 17 | 16.1 | 29.0 | 0.00 | 1.17 | 1.12 | 91 | 1010.0 |
| 20260502034505 | 13 | 338 | 17.7 | 29.0 | 0.00 | 1.17 | 1.12 | 91 | 1009.9 |
| 20260502034402 | 13 | 324 | 20.9 | 29.0 | 0.00 | 1.17 | 1.12 | 91 | 1009.9 |
| 20260502034302 | 13 | 0 | 20.9 | 29.0 | 0.00 | 1.17 | 1.12 | 91 | 1010.0 |
| 20260502034202 | 13 | 337 | 17.7 | 27.4 | 0.00 | 1.17 | 1.12 | 91 | 1010.0 |
| 20260502034101 | 13 | 13 | 16.1 | 27.4 | 0.00 | 1.17 | 1.12 | 91 | 1009.8 |
| 20260502034004 | 13 | 334 | 14.5 | 27.4 | 0.00 | 1.17 | 1.12 | 91 | 1009.9 |
| 20260502033903 | 13 | 353 | 14.5 | 27.4 | 0.00 | 1.17 | 1.12 | 91 | 1009.8 |
| 20260502033802 | 13 | 0 | 14.5 | 27.4 | 0.00 | 1.17 | 1.12 | 91 | 1009.9 |
| 20260502033702 | 13 | 14 | 17.7 | 27.4 | 0.00 | 1.17 | 1.12 | 91 | 1009.8 |
| 20260502033604 | 13 | 358 | 19.3 | 27.4 | 0.00 | 1.17 | 1.12 | 91 | 1009.8 |
| 20260502033503 | 13 | 343 | 17.7 | 27.4 | 0.00 | 1.17 | 1.12 | 91 | 1009.9 |
| 20260502033403 | 13 | 0 | 19.3 | 27.4 | 0.00 | 1.17 | 1.12 | 91 | 1009.8 |
| 20260502033302 | 13 | 354 | 19.3 | 27.4 | 0.00 | 1.17 | 1.12 | 91 | 1009.7 |
| 20260502033203 | 13 | 0 | 16.1 | 25.7 | 0.00 | 1.17 | 1.12 | 91 | 1009.7 |
| 20260502033102 | 13 | 7 | 17.7 | 25.7 | 0.00 | 1.17 | 1.12 | 91 | 1009.7 |
| 20260502033004 | 13 | 0 | 17.7 | 25.7 | 0.00 | 1.17 | 1.12 | 91 | 1009.7 |
| 20260502032904 | 13 | 351 | 17.7 | 25.7 | 0.00 | 1.17 | 1.12 | 91 | 1009.7 |
| 20260502032803 | 13 | 355 | 14.5 | 25.7 | 0.00 | 1.17 | 1.12 | 91 | 1009.6 |
| 20260502032702 | 13 | 344 | 12.9 | 25.7 | 0.00 | 1.17 | 1.12 | 91 | 1009.5 |
| 20260502032602 | 13 | 323 | 12.9 | 25.7 | 0.00 | 1.17 | 1.12 | 91 | 1009.5 |
| 20260502032503 | 13 | 350 | 16.1 | 25.7 | 0.00 | 1.17 | 1.12 | 91 | 1009.5 |
| 20260502032402 | 13 | 329 | 17.7 | 25.7 | 0.00 | 1.17 | 1.12 | 91 | 1009.4 |
| 20260502032305 | 13 | 354 | 14.5 | 24.1 | 0.00 | 1.17 | 1.12 | 91 | 1009.4 |
| 20260502032204 | 13 | 330 | 12.9 | 24.1 | 0.00 | 1.17 | 1.12 | 91 | 1009.3 |
| 20260502032104 | 13 | 0 | 14.5 | 24.1 | 0.00 | 1.17 | 1.12 | 91 | 1009.3 |
| 20260502032004 | 13 | 334 | 14.5 | 24.1 | 0.00 | 1.17 | 1.12 | 91 | 1009.3 |
| 20260502031903 | 13 | 1 | 14.5 | 24.1 | 0.00 | 1.17 | 1.12 | 91 | 1009.3 |
| 20260502031802 | 13 | 0 | 16.1 | 24.1 | 0.00 | 1.17 | 1.12 | 91 | 1009.2 |
| 20260502031704 | 13 | 0 | 12.9 | 24.1 | 0.00 | 1.17 | 1.12 | 91 | 1009.2 |
| 20260502031604 | 13 | 0 | 12.9 | 24.1 | 0.00 | 1.17 | 1.12 | 91 | 1009.3 |
| 20260502031504 | 13 | 0 | 16.1 | 24.1 | 0.00 | 1.17 | 1.12 | 91 | 1009.2 |
| 20260502031404 | 13 | 358 | 16.1 | 24.1 | 0.00 | 1.17 | 1.12 | 91 | 1009.3 |
| 20260502031302 | 13 | 345 | 14.5 | 24.1 | 0.00 | 1.17 | 1.12 | 91 | 1009.4 |
| 20260502031202 | 13 | 348 | 12.9 | 24.1 | 0.03 | 1.17 | 1.12 | 91 | 1009.4 |
| 20260502031105 | 13 | 0 | 14.5 | 24.1 | 0.03 | 1.17 | 1.12 | 91 | 1009.3 |
| 20260502031003 | 13 | 358 | 14.5 | 24.1 | 0.03 | 1.17 | 1.12 | 91 | 1009.4 |
| 20260502030904 | 13 | 0 | 12.9 | 24.1 | 0.03 | 1.17 | 1.12 | 91 | 1009.4 |
| 20260502030803 | 13 | 0 | 14.5 | 24.1 | 0.03 | 1.17 | 1.12 | 91 | 1009.3 |
| 20260502030704 | 13 | 351 | 14.5 | 24.1 | 0.03 | 1.17 | 1.12 | 91 | 1009.3 |
| 20260502030603 | 13 | 357 | 9.7 | 24.1 | 0.03 | 1.17 | 1.12 | 91 | 1009.3 |
| 20260502030502 | 13 | 0 | 14.5 | 24.1 | 0.03 | 1.17 | 1.12 | 91 | 1009.3 |
| 20260502030403 | 13 | 0 | 16.1 | 24.1 | 0.03 | 1.17 | 1.12 | 91 | 1009.2 |
| 20260502030304 | 13 | 340 | 16.1 | 27.4 | 0.03 | 1.17 | 1.12 | 91 | 1009.4 |
| 20260502030202 | 13 | 341 | 16.1 | 27.4 | 0.03 | 1.17 | 1.12 | 91 | 1009.3 |
| 20260502030005 | 13 | 0 | 16.1 | 27.4 | 0.03 | 1.17 | 1.09 | 91 | 1009.1 |
| 20260502025902 | 13 | 0 | 14.5 | 27.4 | 0.03 | 1.17 | 1.12 | 91 | 1009.0 |
| 20260502025804 | 13 | 353 | 16.1 | 27.4 | 0.03 | 1.17 | 1.12 | 91 | 1009.1 |
| 20260502025704 | 13 | 350 | 17.7 | 27.4 | 0.03 | 1.17 | 1.12 | 91 | 1008.9 |
| 20260502025603 | 13 | 348 | 14.5 | 27.4 | 0.03 | 1.17 | 1.12 | 91 | 1009.0 |
| 20260502025503 | 13 | 0 | 16.1 | 27.4 | 0.03 | 1.17 | 1.12 | 91 | 1008.9 |
| 20260502025402 | 13 | 7 | 17.7 | 27.4 | 0.03 | 1.17 | 1.12 | 91 | 1008.9 |
| 20260502025306 | 13 | 0 | 14.5 | 20.9 | 0.03 | 1.17 | 1.12 | 91 | 1008.8 |
| 20260502025204 | 13 | 353 | 14.5 | 24.1 | 0.03 | 1.17 | 1.12 | 91 | 1008.8 |
| 20260502025102 | 13 | 0 | 12.9 | 24.1 | 0.03 | 1.17 | 1.12 | 91 | 1008.8 |
| 20260502025004 | 13 | 17 | 11.3 | 24.1 | 0.03 | 1.17 | 1.12 | 91 | 1008.8 |
| 20260502024902 | 13 | 348 | 12.9 | 24.1 | 0.03 | 1.17 | 1.12 | 91 | 1008.6 |
| 20260502024803 | 13 | 0 | 12.9 | 24.1 | 0.03 | 1.17 | 1.12 | 91 | 1008.8 |
| 20260502024702 | 13 | 0 | 12.9 | 24.1 | 0.03 | 1.17 | 1.12 | 91 | 1008.7 |
| 20260502024603 | 13 | 0 | 12.9 | 24.1 | 0.03 | 1.17 | 1.12 | 91 | 1008.7 |
| 20260502024504 | 13 | 0 | 11.3 | 24.1 | 0.03 | 1.17 | 1.12 | 91 | 1008.6 |
| 20260502024402 | 13 | 344 | 16.1 | 24.1 | 0.03 | 1.17 | 1.12 | 91 | 1008.6 |
| 20260502024303 | 13 | 0 | 17.7 | 24.1 | 0.03 | 1.17 | 1.12 | 91 | 1008.6 |
| 20260502024203 | 13 | 0 | 16.1 | 22.5 | 0.03 | 1.17 | 1.12 | 91 | 1008.6 |
| 20260502024103 | 13 | 6 | 16.1 | 22.5 | 0.03 | 1.17 | 1.12 | 91 | 1008.4 |
| 20260502024003 | 13 | 0 | 14.5 | 22.5 | 0.03 | 1.17 | 1.12 | 92 | 1008.5 |
| 20260502023903 | 13 | 343 | 11.3 | 22.5 | 0.03 | 1.17 | 1.12 | 91 | 1008.4 |
| 20260502023804 | 13 | 353 | 11.3 | 22.5 | 0.03 | 1.17 | 1.12 | 91 | 1008.4 |
| 20260502023702 | 13 | 0 | 11.3 | 22.5 | 0.03 | 1.17 | 1.12 | 91 | 1008.4 |
| 20260502023603 | 13 | 344 | 12.9 | 22.5 | 0.03 | 1.17 | 1.12 | 91 | 1008.4 |
| 20260502023503 | 13 | 7 | 14.5 | 22.5 | 0.03 | 1.17 | 1.12 | 91 | 1008.3 |
| 20260502023402 | 13 | 0 | 14.5 | 25.7 | 0.03 | 1.17 | 1.12 | 91 | 1008.3 |
| 20260502023303 | 13 | 351 | 9.7 | 25.7 | 0.03 | 1.17 | 1.12 | 91 | 1008.3 |
| 20260502023202 | 13 | 8 | 11.3 | 25.7 | 0.05 | 1.17 | 1.12 | 91 | 1008.1 |
| 20260502023102 | 13 | 331 | 14.5 | 25.7 | 0.05 | 1.17 | 1.12 | 91 | 1008.0 |
| 20260502023002 | 13 | 0 | 16.1 | 25.7 | 0.05 | 1.17 | 1.12 | 91 | 1008.0 |
| 20260502022903 | 13 | 11 | 12.9 | 25.7 | 0.05 | 1.17 | 1.12 | 91 | 1007.9 |
| 20260502022802 | 13 | 333 | 9.7 | 25.7 | 0.05 | 1.17 | 1.12 | 91 | 1007.8 |
| 20260502022702 | 13 | 350 | 14.5 | 27.4 | 0.05 | 1.17 | 1.12 | 91 | 1007.8 |
| 20260502022602 | 13 | 32 | 17.7 | 29.0 | 0.05 | 1.17 | 1.12 | 92 | 1007.8 |
| 20260502022504 | 13 | 13 | 14.5 | 29.0 | 0.05 | 1.17 | 1.12 | 91 | 1007.9 |
| 20260502022403 | 13 | 0 | 14.5 | 29.0 | 0.05 | 1.17 | 1.12 | 92 | 1007.8 |
| 20260502022306 | 13 | 0 | 17.7 | 29.0 | 0.05 | 1.17 | 1.12 | 91 | 1007.9 |
| 20260502022203 | 13 | 13 | 17.7 | 29.0 | 0.05 | 1.17 | 1.12 | 91 | 1007.9 |
| 20260502022103 | 13 | 0 | 16.1 | 29.0 | 0.05 | 1.17 | 1.12 | 91 | 1008.0 |
| 20260502022003 | 13 | 358 | 16.1 | 29.0 | 0.05 | 1.17 | 1.12 | 91 | 1008.1 |
| 20260502021903 | 13 | 8 | 16.1 | 29.0 | 0.05 | 1.17 | 1.12 | 91 | 1008.2 |
| 20260502021802 | 13 | 1 | 16.1 | 29.0 | 0.05 | 1.17 | 1.12 | 91 | 1008.3 |
| 20260502021702 | 13 | 0 | 16.1 | 29.0 | 0.05 | 1.17 | 1.12 | 91 | 1008.2 |
| 20260502021604 | 13 | 357 | 14.5 | 29.0 | 0.05 | 1.17 | 1.12 | 91 | 1008.0 |
| 20260502021503 | 13 | 44 | 16.1 | 29.0 | 0.05 | 1.17 | 1.12 | 91 | 1008.0 |
| 20260502021404 | 13 | 7 | 17.7 | 29.0 | 0.05 | 1.17 | 1.12 | 91 | 1007.9 |
| 20260502021302 | 13 | 13 | 16.1 | 27.4 | 0.05 | 1.14 | 1.09 | 91 | 1008.0 |
| 20260502021204 | 13 | 0 | 14.5 | 27.4 | 0.03 | 1.14 | 1.09 | 91 | 1007.9 |
| 20260502021102 | 13 | 11 | 17.7 | 27.4 | 0.03 | 1.14 | 1.09 | 91 | 1007.9 |
| 20260502021005 | 13 | 0 | 19.3 | 29.0 | 0.03 | 1.14 | 1.09 | 91 | 1008.0 |
| 20260502020902 | 13 | 13 | 14.5 | 29.0 | 0.03 | 1.14 | 1.09 | 91 | 1007.8 |
| 20260502020804 | 13 | 0 | 12.9 | 29.0 | 0.03 | 1.14 | 1.09 | 91 | 1007.8 |
| 20260502020702 | 13 | 338 | 14.5 | 29.0 | 0.03 | 1.14 | 1.09 | 91 | 1007.8 |
| 20260502020602 | 13 | 21 | 12.9 | 29.0 | 0.03 | 1.14 | 1.09 | 91 | 1007.8 |
| 20260502020504 | 13 | 4 | 14.5 | 29.0 | 0.03 | 1.14 | 1.09 | 91 | 1007.7 |
| 20260502020403 | 13 | 3 | 12.9 | 29.0 | 0.03 | 1.14 | 1.09 | 91 | 1007.9 |
| 20260502020303 | 13 | 333 | 14.5 | 29.0 | 0.05 | 1.14 | 1.09 | 91 | 1007.8 |
| 20260502020203 | 13 | 25 | 17.7 | 29.0 | 0.05 | 1.14 | 1.09 | 91 | 1007.7 |
| 20260502020002 | 13 | 357 | 17.7 | 27.4 | 0.05 | 1.14 | 1.04 | 92 | 1007.8 |
| 20260502015902 | 14 | 0 | 12.9 | 27.4 | 0.05 | 1.14 | 1.09 | 92 | 1007.8 |
| 20260502015804 | 14 | 0 | 14.5 | 27.4 | 0.05 | 1.14 | 1.09 | 92 | 1007.7 |
| 20260502015703 | 14 | 351 | 14.5 | 27.4 | 0.05 | 1.14 | 1.09 | 92 | 1007.8 |
| 20260502015602 | 14 | 7 | 17.7 | 27.4 | 0.05 | 1.14 | 1.09 | 91 | 1007.8 |
| 20260502015504 | 14 | 8 | 17.7 | 27.4 | 0.05 | 1.14 | 1.09 | 92 | 1007.8 |
| 20260502015403 | 14 | 358 | 14.5 | 27.4 | 0.05 | 1.14 | 1.09 | 92 | 1007.8 |
| 20260502015305 | 14 | 8 | 16.1 | 27.4 | 0.05 | 1.14 | 1.09 | 91 | 1007.7 |
| 20260502015203 | 14 | 0 | 16.1 | 27.4 | 0.05 | 1.14 | 1.09 | 91 | 1007.8 |
| 20260502015103 | 14 | 0 | 14.5 | 27.4 | 0.05 | 1.14 | 1.09 | 91 | 1007.8 |
| 20260502015005 | 14 | 23 | 12.9 | 27.4 | 0.05 | 1.14 | 1.09 | 91 | 1007.8 |
| 20260502014903 | 14 | 18 | 14.5 | 27.4 | 0.05 | 1.14 | 1.09 | 91 | 1007.7 |
| 20260502014802 | 14 | 7 | 16.1 | 27.4 | 0.05 | 1.14 | 1.09 | 91 | 1007.7 |
| 20260502014702 | 14 | 0 | 16.1 | 27.4 | 0.05 | 1.14 | 1.09 | 91 | 1007.7 |
| 20260502014604 | 14 | 0 | 14.5 | 27.4 | 0.05 | 1.14 | 1.09 | 91 | 1007.6 |
| 20260502014504 | 14 | 0 | 16.1 | 25.7 | 0.05 | 1.14 | 1.09 | 91 | 1007.7 |
| 20260502014404 | 14 | 0 | 16.1 | 25.7 | 0.05 | 1.14 | 1.09 | 91 | 1007.7 |
| 20260502014303 | 14 | 340 | 14.5 | 25.7 | 0.05 | 1.14 | 1.09 | 92 | 1007.7 |
| 20260502014203 | 14 | 0 | 12.9 | 27.4 | 0.05 | 1.14 | 1.09 | 91 | 1007.7 |
| 20260502014103 | 14 | 350 | 16.1 | 27.4 | 0.05 | 1.14 | 1.09 | 91 | 1007.7 |
| 20260502014003 | 14 | 347 | 17.7 | 27.4 | 0.05 | 1.14 | 1.09 | 91 | 1007.8 |
| 20260502013903 | 14 | 341 | 16.1 | 27.4 | 0.05 | 1.14 | 1.09 | 91 | 1007.6 |
| 20260502013804 | 14 | 0 | 16.1 | 27.4 | 0.05 | 1.14 | 1.09 | 91 | 1007.7 |
| 20260502013703 | 14 | 0 | 14.5 | 27.4 | 0.05 | 1.14 | 1.09 | 91 | 1007.6 |
| 20260502013602 | 14 | 0 | 12.9 | 27.4 | 0.05 | 1.14 | 1.09 | 92 | 1007.6 |
| 20260502013504 | 15 | 20 | 12.9 | 27.4 | 0.05 | 1.14 | 1.09 | 92 | 1007.4 |
| 20260502013403 | 15 | 0 | 17.7 | 27.4 | 0.05 | 1.14 | 1.09 | 92 | 1007.5 |
| 20260502013304 | 15 | 13 | 17.7 | 27.4 | 0.05 | 1.12 | 1.07 | 92 | 1007.5 |
| 20260502013201 | 15 | 358 | 11.3 | 27.4 | 0.03 | 1.12 | 1.07 | 92 | 1007.4 |
| 20260502013102 | 15 | 10 | 14.5 | 27.4 | 0.03 | 1.12 | 1.07 | 92 | 1007.3 |
| 20260502013004 | 15 | 358 | 14.5 | 27.4 | 0.03 | 1.12 | 1.07 | 92 | 1007.3 |
| 20260502012902 | 15 | 0 | 12.9 | 27.4 | 0.03 | 1.12 | 1.07 | 92 | 1007.3 |
| 20260502012803 | 15 | 0 | 16.1 | 27.4 | 0.03 | 1.12 | 1.07 | 92 | 1007.2 |
| 20260502012702 | 15 | 343 | 17.7 | 27.4 | 0.03 | 1.12 | 1.07 | 92 | 1007.3 |
| 20260502012602 | 15 | 320 | 17.7 | 25.7 | 0.03 | 1.12 | 1.07 | 92 | 1007.3 |
| 20260502012503 | 15 | 340 | 17.7 | 25.7 | 0.03 | 1.12 | 1.07 | 92 | 1007.5 |
| 20260502012402 | 15 | 354 | 17.7 | 25.7 | 0.03 | 1.12 | 1.07 | 92 | 1007.6 |
| 20260502012306 | 15 | 345 | 14.5 | 20.9 | 0.03 | 1.12 | 1.07 | 92 | 1007.5 |
| 20260502012203 | 15 | 353 | 14.5 | 20.9 | 0.03 | 1.12 | 1.07 | 92 | 1007.6 |
| 20260502012103 | 15 | 313 | 12.9 | 20.9 | 0.05 | 1.12 | 1.07 | 92 | 1007.6 |
| 20260502012005 | 15 | 338 | 12.9 | 20.9 | 0.05 | 1.12 | 1.07 | 92 | 1007.5 |
| 20260502011902 | 15 | 10 | 12.9 | 22.5 | 0.05 | 1.12 | 1.07 | 92 | 1007.4 |
| 20260502011803 | 15 | 330 | 12.9 | 22.5 | 0.05 | 1.12 | 1.07 | 92 | 1007.3 |
| 20260502011703 | 15 | 21 | 14.5 | 24.1 | 0.05 | 1.12 | 1.07 | 92 | 1007.2 |
| 20260502011603 | 15 | 345 | 16.1 | 24.1 | 0.05 | 1.12 | 1.07 | 92 | 1007.2 |
| 20260502011503 | 15 | 0 | 16.1 | 24.1 | 0.05 | 1.12 | 1.07 | 92 | 1007.2 |
| 20260502011404 | 15 | 338 | 16.1 | 24.1 | 0.05 | 1.12 | 1.07 | 91 | 1007.1 |
| 20260502011302 | 15 | 353 | 16.1 | 24.1 | 0.05 | 1.12 | 1.07 | 92 | 1007.1 |
| 20260502011202 | 15 | 358 | 16.1 | 24.1 | 0.05 | 1.12 | 1.07 | 92 | 1007.1 |
| 20260502011102 | 15 | 344 | 14.5 | 24.1 | 0.05 | 1.12 | 1.07 | 92 | 1007.1 |
| 20260502011003 | 15 | 348 | 17.7 | 24.1 | 0.05 | 1.12 | 1.07 | 92 | 1007.0 |
| 20260502010905 | 15 | 345 | 19.3 | 24.1 | 0.05 | 1.12 | 1.07 | 92 | 1007.1 |
| 20260502010803 | 15 | 358 | 17.7 | 24.1 | 0.05 | 1.12 | 1.07 | 92 | 1007.1 |
| 20260502010702 | 15 | 353 | 16.1 | 24.1 | 0.05 | 1.12 | 1.07 | 92 | 1007.0 |
| 20260502010603 | 15 | 355 | 14.5 | 20.9 | 0.05 | 1.12 | 1.07 | 92 | 1006.9 |
| 20260502010505 | 15 | 344 | 16.1 | 20.9 | 0.05 | 1.12 | 1.07 | 92 | 1007.0 |
| 20260502010404 | 15 | 354 | 12.9 | 20.9 | 0.05 | 1.09 | 1.04 | 92 | 1006.9 |
| 20260502010303 | 15 | 344 | 9.7 | 17.7 | 0.03 | 1.09 | 1.04 | 92 | 1006.8 |
| 20260502010204 | 15 | 344 | 11.3 | 17.7 | 0.03 | 1.09 | 1.04 | 92 | 1006.8 |
| 20260502010104 | 15 | 350 | 9.7 | 17.7 | 0.03 | 1.09 | 1.04 | 92 | 1006.9 |
| 20260502010005 | 15 | 343 | 9.7 | 17.7 | 0.03 | 1.09 | 1.02 | 92 | 1006.8 |
| 20260502005903 | 15 | 357 | 9.7 | 17.7 | 0.03 | 1.09 | 1.04 | 92 | 1006.8 |
| 20260502005802 | 15 | 355 | 9.7 | 17.7 | 0.03 | 1.09 | 1.04 | 92 | 1006.9 |
| 20260502005703 | 15 | 0 | 11.3 | 17.7 | 0.03 | 1.09 | 1.04 | 92 | 1006.9 |
| 20260502005602 | 15 | 344 | 11.3 | 17.7 | 0.03 | 1.09 | 1.04 | 92 | 1007.0 |
| 20260502005504 | 15 | 348 | 11.3 | 17.7 | 0.03 | 1.09 | 1.04 | 92 | 1007.1 |
| 20260502005403 | 15 | 337 | 11.3 | 19.3 | 0.03 | 1.09 | 1.04 | 92 | 1007.1 |
| 20260502005305 | 15 | 0 | 9.7 | 19.3 | 0.03 | 1.09 | 1.04 | 92 | 1007.0 |
| 20260502005202 | 15 | 0 | 8.0 | 19.3 | 0.03 | 1.09 | 1.04 | 92 | 1007.1 |
| 20260502005102 | 15 | 0 | 9.7 | 19.3 | 0.03 | 1.09 | 1.04 | 92 | 1007.1 |
| 20260502005003 | 15 | 348 | 11.3 | 19.3 | 0.03 | 1.09 | 1.04 | 92 | 1007.2 |
| 20260502004903 | 15 | 0 | 9.7 | 19.3 | 0.03 | 1.09 | 1.04 | 92 | 1007.2 |
| 20260502004802 | 15 | 351 | 9.7 | 19.3 | 0.03 | 1.09 | 1.04 | 92 | 1007.3 |
| 20260502004704 | 15 | 0 | 11.3 | 20.9 | 0.05 | 1.09 | 1.04 | 92 | 1007.3 |
| 20260502004603 | 15 | 353 | 14.5 | 20.9 | 0.05 | 1.09 | 1.04 | 92 | 1007.4 |
| 20260502004503 | 15 | 350 | 14.5 | 20.9 | 0.05 | 1.09 | 1.04 | 92 | 1007.6 |
| 20260502004404 | 15 | 344 | 14.5 | 20.9 | 0.05 | 1.09 | 1.04 | 92 | 1007.8 |
| 20260502004304 | 15 | 0 | 12.9 | 20.9 | 0.05 | 1.09 | 1.04 | 92 | 1008.0 |
| 20260502004203 | 15 | 313 | 11.3 | 20.9 | 0.05 | 1.09 | 1.04 | 91 | 1008.0 |
| 20260502004104 | 15 | 317 | 11.3 | 20.9 | 0.05 | 1.09 | 1.04 | 92 | 1007.9 |
| 20260502004004 | 15 | 341 | 9.7 | 20.9 | 0.05 | 1.09 | 1.04 | 92 | 1007.9 |
| 20260502003904 | 15 | 317 | 14.5 | 20.9 | 0.05 | 1.09 | 1.04 | 92 | 1007.9 |
| 20260502003802 | 15 | 357 | 12.9 | 20.9 | 0.05 | 1.09 | 1.04 | 92 | 1007.6 |
| 20260502003702 | 15 | 333 | 11.3 | 19.3 | 0.05 | 1.09 | 1.04 | 92 | 1007.5 |
| 20260502003603 | 15 | 336 | 12.9 | 19.3 | 0.05 | 1.09 | 1.04 | 92 | 1007.2 |
| 20260502003503 | 15 | 354 | 12.9 | 19.3 | 0.05 | 1.09 | 1.04 | 92 | 1007.1 |
| 20260502003402 | 15 | 351 | 11.3 | 17.7 | 0.05 | 1.09 | 1.04 | 92 | 1006.9 |
| 20260502003304 | 15 | 358 | 11.3 | 19.3 | 0.05 | 1.09 | 1.04 | 92 | 1006.7 |
| 20260502003201 | 15 | 330 | 11.3 | 27.4 | 0.05 | 1.09 | 1.04 | 92 | 1006.6 |
| 20260502003102 | 15 | 7 | 12.9 | 27.4 | 0.05 | 1.09 | 1.04 | 92 | 1006.4 |
| 20260502003002 | 15 | 338 | 11.3 | 27.4 | 0.05 | 1.09 | 1.04 | 92 | 1006.2 |
| 20260502002902 | 15 | 347 | 11.3 | 27.4 | 0.05 | 1.09 | 1.04 | 91 | 1006.1 |
| 20260502002802 | 15 | 355 | 11.3 | 27.4 | 0.05 | 1.09 | 1.04 | 92 | 1006.0 |
| 20260502002704 | 15 | 31 | 11.3 | 27.4 | 0.05 | 1.09 | 1.04 | 92 | 1006.0 |
| 20260502002603 | 15 | 10 | 9.7 | 27.4 | 0.05 | 1.09 | 1.04 | 92 | 1006.0 |
| 20260502002503 | 15 | 351 | 11.3 | 27.4 | 0.05 | 1.09 | 1.04 | 92 | 1005.9 |
| 20260502002402 | 15 | 350 | 14.5 | 27.4 | 0.05 | 1.09 | 1.04 | 91 | 1005.9 |
| 20260502002305 | 15 | 355 | 16.1 | 27.4 | 0.05 | 1.09 | 1.04 | 92 | 1006.0 |
| 20260502002202 | 15 | 0 | 16.1 | 24.1 | 0.05 | 1.07 | 1.02 | 92 | 1005.9 |
| 20260502002104 | 15 | 354 | 16.1 | 24.1 | 0.03 | 1.07 | 1.02 | 92 | 1005.8 |
| 20260502002005 | 15 | 17 | 14.5 | 24.1 | 0.03 | 1.07 | 1.02 | 92 | 1005.9 |
| 20260502001902 | 15 | 16 | 16.1 | 24.1 | 0.03 | 1.07 | 1.02 | 92 | 1005.9 |
| 20260502001803 | 15 | 348 | 16.1 | 24.1 | 0.03 | 1.07 | 1.02 | 92 | 1005.9 |
| 20260502001701 | 15 | 20 | 16.1 | 24.1 | 0.03 | 1.07 | 1.02 | 92 | 1005.9 |
| 20260502001603 | 15 | 0 | 14.5 | 22.5 | 0.03 | 1.07 | 1.02 | 92 | 1005.9 |
| 20260502001502 | 15 | 327 | 12.9 | 22.5 | 0.03 | 1.07 | 1.02 | 92 | 1006.0 |
| 20260502001402 | 15 | 18 | 11.3 | 24.1 | 0.03 | 1.07 | 1.02 | 91 | 1006.0 |
| 20260502001303 | 15 | 345 | 14.5 | 24.1 | 0.03 | 1.07 | 1.02 | 92 | 1006.2 |
| 20260502001203 | 15 | 345 | 14.5 | 24.1 | 0.03 | 1.07 | 1.02 | 92 | 1006.1 |
| 20260502001103 | 15 | 326 | 14.5 | 24.1 | 0.03 | 1.07 | 1.02 | 92 | 1006.2 |
| 20260502001002 | 15 | 4 | 16.1 | 24.1 | 0.03 | 1.07 | 1.02 | 91 | 1006.2 |
| 20260502000903 | 15 | 0 | 17.7 | 24.1 | 0.03 | 1.07 | 1.02 | 91 | 1006.2 |
| 20260502000805 | 15 | 337 | 17.7 | 24.1 | 0.03 | 1.07 | 1.02 | 91 | 1006.2 |
| 20260502000703 | 15 | 1 | 17.7 | 24.1 | 0.03 | 1.07 | 1.02 | 92 | 1006.3 |
| 20260502000603 | 15 | 350 | 19.3 | 24.1 | 0.03 | 1.07 | 1.02 | 92 | 1006.4 |
| 20260502000503 | 15 | 348 | 16.1 | 24.1 | 0.03 | 1.07 | 1.02 | 92 | 1006.4 |
| 20260502000404 | 15 | 344 | 14.5 | 20.9 | 0.03 | 1.07 | 1.02 | 91 | 1006.5 |
| 20260502000304 | 15 | 357 | 17.7 | 22.5 | 0.03 | 1.07 | 1.02 | 91 | 1006.6 |
| 20260502000204 | 15 | 0 | 16.1 | 22.5 | 0.03 | 1.07 | 1.02 | 91 | 1006.4 |
| 20260502000104 | 15 | 7 | 14.5 | 22.5 | 0.03 | 1.07 | 1.02 | 92 | 1006.5 |
| 20260502000002 | 15 | 3 | 12.9 | 22.5 | 0.03 | 1.07 | 0.99 | 92 | 1006.4 |
| 20260501235903 | 15 | 344 | 11.3 | 22.5 | 0.05 | 1.07 | 1.02 | 91 | 1006.4 |
| 20260501235804 | 15 | 350 | 11.3 | 22.5 | 0.05 | 1.07 | 1.02 | 91 | 1006.4 |
| 20260501235703 | 15 | 345 | 12.9 | 22.5 | 0.05 | 1.07 | 1.02 | 91 | 1006.5 |
| 20260501235604 | 15 | 0 | 12.9 | 22.5 | 0.05 | 1.07 | 1.02 | 91 | 1006.5 |
| 20260501235502 | 15 | 0 | 14.5 | 22.5 | 0.05 | 1.07 | 1.02 | 91 | 1006.5 |
| 20260501235402 | 15 | 0 | 17.7 | 22.5 | 0.05 | 1.07 | 1.02 | 91 | 1006.6 |
| 20260501235305 | 15 | 340 | 14.5 | 20.9 | 0.05 | 1.07 | 1.02 | 92 | 1006.4 |
| 20260501235203 | 15 | 0 | 11.3 | 20.9 | 0.05 | 1.07 | 1.02 | 92 | 1006.3 |
| 20260501235104 | 15 | 13 | 11.3 | 20.9 | 0.05 | 1.07 | 1.02 | 92 | 1006.2 |
| 20260501235005 | 15 | 0 | 12.9 | 20.9 | 0.05 | 1.07 | 1.02 | 92 | 1006.2 |
| 20260501234902 | 15 | 358 | 12.9 | 19.3 | 0.05 | 1.07 | 1.02 | 92 | 1006.3 |
| 20260501234803 | 15 | 0 | 9.7 | 19.3 | 0.05 | 1.04 | 0.99 | 92 | 1006.4 |
| 20260501234702 | 15 | 21 | 9.7 | 19.3 | 0.03 | 1.04 | 0.99 | 91 | 1006.5 |
| 20260501234603 | 15 | 14 | 12.9 | 19.3 | 0.03 | 1.04 | 0.99 | 91 | 1006.8 |
| 20260501234503 | 15 | 0 | 12.9 | 19.3 | 0.03 | 1.04 | 0.99 | 92 | 1006.9 |
| 20260501234403 | 15 | 0 | 14.5 | 19.3 | 0.03 | 1.04 | 0.99 | 92 | 1007.1 |
| 20260501234302 | 15 | 1 | 12.9 | 19.3 | 0.03 | 1.04 | 0.99 | 92 | 1007.1 |
| 20260501234203 | 15 | 0 | 11.3 | 16.1 | 0.03 | 1.04 | 0.99 | 92 | 1007.3 |
| 20260501234102 | 15 | 24 | 11.3 | 16.1 | 0.03 | 1.04 | 0.99 | 92 | 1007.3 |
| 20260501234005 | 15 | 331 | 8.0 | 19.3 | 0.03 | 1.04 | 0.99 | 92 | 1007.2 |
| 20260501233902 | 15 | 353 | 8.0 | 19.3 | 0.03 | 1.04 | 0.99 | 92 | 1007.2 |
| 20260501233802 | 15 | 8 | 9.7 | 19.3 | 0.03 | 1.04 | 0.99 | 92 | 1007.1 |
| 20260501233703 | 15 | 355 | 8.0 | 20.9 | 0.03 | 1.04 | 0.99 | 92 | 1006.9 |
| 20260501233604 | 15 | 27 | 9.7 | 22.5 | 0.03 | 1.04 | 0.99 | 92 | 1006.8 |
| 20260501233504 | 15 | 0 | 9.7 | 22.5 | 0.03 | 1.04 | 0.99 | 92 | 1006.6 |
| 20260501233402 | 15 | 1 | 8.0 | 22.5 | 0.03 | 1.04 | 0.99 | 92 | 1006.4 |
| 20260501233302 | 15 | 23 | 8.0 | 22.5 | 0.03 | 1.04 | 0.99 | 92 | 1006.3 |
| 20260501233204 | 15 | 10 | 9.7 | 22.5 | 0.03 | 1.04 | 0.99 | 92 | 1006.1 |
| 20260501233103 | 15 | 4 | 14.5 | 22.5 | 0.03 | 1.04 | 0.99 | 92 | 1006.1 |
| 20260501233004 | 15 | 13 | 12.9 | 22.5 | 0.03 | 1.04 | 0.99 | 92 | 1005.9 |
| 20260501232903 | 15 | 3 | 12.9 | 22.5 | 0.03 | 1.04 | 0.99 | 92 | 1005.8 |
| 20260501232803 | 15 | 1 | 14.5 | 22.5 | 0.03 | 1.04 | 0.99 | 92 | 1005.8 |
| 20260501232702 | 15 | 0 | 14.5 | 22.5 | 0.03 | 1.04 | 0.99 | 92 | 1005.7 |
| 20260501232602 | 15 | 340 | 12.9 | 22.5 | 0.03 | 1.04 | 0.99 | 92 | 1005.7 |
| 20260501232503 | 15 | 0 | 12.9 | 25.7 | 0.03 | 1.04 | 0.99 | 92 | 1005.7 |
| 20260501232403 | 15 | 8 | 11.3 | 25.7 | 0.03 | 1.04 | 0.99 | 92 | 1005.7 |
| 20260501232306 | 15 | 0 | 9.7 | 25.7 | 0.03 | 1.04 | 0.99 | 92 | 1005.6 |
| 20260501232203 | 15 | 4 | 11.3 | 25.7 | 0.03 | 1.04 | 0.99 | 92 | 1005.6 |
| 20260501232103 | 15 | 11 | 12.9 | 25.7 | 0.03 | 1.04 | 0.99 | 92 | 1005.4 |
| 20260501232003 | 15 | 4 | 14.5 | 25.7 | 0.03 | 1.04 | 0.99 | 92 | 1005.4 |
| 20260501231902 | 15 | 23 | 14.5 | 25.7 | 0.03 | 1.04 | 0.99 | 92 | 1005.2 |
| 20260501231804 | 15 | 331 | 14.5 | 25.7 | 0.03 | 1.04 | 0.99 | 92 | 1005.1 |
| 20260501231703 | 15 | 24 | 14.5 | 25.7 | 0.03 | 1.04 | 0.99 | 92 | 1005.0 |
| 20260501231603 | 15 | 58 | 14.5 | 25.7 | 0.03 | 1.04 | 0.99 | 92 | 1005.0 |
| 20260501231503 | 15 | 28 | 9.7 | 20.9 | 0.03 | 1.04 | 0.99 | 92 | 1004.9 |
| 20260501231403 | 15 | 0 | 9.7 | 20.9 | 0.03 | 1.04 | 0.99 | 92 | 1004.8 |
| 20260501231303 | 15 | 44 | 11.3 | 20.9 | 0.03 | 1.04 | 0.99 | 91 | 1004.7 |
| 20260501231201 | 15 | 102 | 12.9 | 27.4 | 0.03 | 1.04 | 0.99 | 91 | 1004.6 |
| 20260501231104 | 16 | 62 | 9.7 | 27.4 | 0.03 | 1.04 | 0.99 | 91 | 1004.6 |
| 20260501231003 | 16 | 25 | 8.0 | 27.4 | 0.03 | 1.04 | 0.99 | 91 | 1004.7 |
| 20260501230903 | 16 | 79 | 9.7 | 27.4 | 0.03 | 1.04 | 0.99 | 91 | 1004.7 |
| 20260501230803 | 16 | 63 | 9.7 | 27.4 | 0.03 | 1.04 | 0.99 | 91 | 1004.8 |
| 20260501230703 | 16 | 78 | 9.7 | 27.4 | 0.03 | 1.04 | 0.99 | 91 | 1004.8 |
| 20260501230602 | 16 | 75 | 8.0 | 27.4 | 0.03 | 1.04 | 0.99 | 92 | 1004.6 |
| 20260501230504 | 16 | 80 | 11.3 | 27.4 | 0.03 | 1.04 | 0.99 | 92 | 1004.5 |
| 20260501230403 | 16 | 68 | 14.5 | 27.4 | 0.03 | 1.04 | 0.99 | 92 | 1004.4 |
| 20260501230303 | 16 | 59 | 12.9 | 27.4 | 0.03 | 1.04 | 0.99 | 92 | 1004.2 |
| 20260501230203 | 16 | 52 | 11.3 | 20.9 | 0.03 | 1.04 | 0.99 | 92 | 1004.4 |
| 20260501230002 | 16 | 63 | 11.3 | 20.9 | 0.03 | 1.02 | 0.97 | 92 | 1004.4 |
| 20260501225902 | 16 | 66 | 9.7 | 20.9 | 0.00 | 1.02 | 0.97 | 92 | 1004.6 |
| 20260501225803 | 16 | 52 | 9.7 | 20.9 | 0.00 | 1.02 | 0.97 | 92 | 1004.8 |
| 20260501225702 | 16 | 45 | 9.7 | 20.9 | 0.00 | 1.02 | 0.97 | 92 | 1005.0 |
| 20260501225601 | 16 | 66 | 9.7 | 20.9 | 0.00 | 1.02 | 0.97 | 92 | 1005.0 |
| 20260501225502 | 16 | 38 | 9.7 | 19.3 | 0.00 | 1.02 | 0.97 | 92 | 1005.2 |
| 20260501225403 | 16 | 47 | 9.7 | 19.3 | 0.00 | 1.02 | 0.97 | 92 | 1005.1 |
| 20260501225305 | 16 | 30 | 8.0 | 19.3 | 0.00 | 1.02 | 0.97 | 92 | 1005.1 |
| 20260501225203 | 16 | 49 | 9.7 | 19.3 | 0.00 | 1.02 | 0.97 | 92 | 1005.0 |
| 20260501225103 | 16 | 54 | 11.3 | 19.3 | 0.00 | 1.02 | 0.97 | 92 | 1004.9 |
| 20260501225003 | 16 | 25 | 11.3 | 19.3 | 0.00 | 1.02 | 0.97 | 92 | 1005.0 |
| 20260501224904 | 16 | 44 | 11.3 | 19.3 | 0.00 | 1.02 | 0.97 | 92 | 1005.4 |
| 20260501224802 | 16 | 16 | 9.7 | 19.3 | 0.00 | 1.02 | 0.97 | 92 | 1005.8 |
| 20260501224703 | 16 | 6 | 12.9 | 20.9 | 0.00 | 1.02 | 0.97 | 92 | 1006.3 |
| 20260501224603 | 16 | 7 | 12.9 | 20.9 | 0.00 | 1.02 | 0.97 | 92 | 1006.5 |
| 20260501224502 | 16 | 307 | 11.3 | 29.0 | 0.00 | 1.02 | 0.97 | 92 | 1006.7 |
| 20260501224403 | 16 | 303 | 9.7 | 29.0 | 0.00 | 1.02 | 0.97 | 92 | 1006.5 |
| 20260501224302 | 16 | 321 | 9.7 | 29.0 | 0.00 | 1.02 | 0.97 | 92 | 1006.4 |
| 20260501224203 | 16 | 314 | 8.0 | 29.0 | 0.00 | 1.02 | 0.97 | 92 | 1005.9 |
| 20260501224102 | 16 | 313 | 8.0 | 32.2 | 0.00 | 1.02 | 0.97 | 92 | 1005.4 |
| 20260501224003 | 16 | 87 | 9.7 | 32.2 | 0.00 | 1.02 | 0.97 | 92 | 1004.9 |
| 20260501223904 | 16 | 35 | 11.3 | 32.2 | 0.00 | 1.02 | 0.97 | 92 | 1004.5 |
| 20260501223802 | 16 | 38 | 9.7 | 32.2 | 0.00 | 1.02 | 0.97 | 92 | 1004.1 |
| 20260501223702 | 16 | 86 | 12.9 | 32.2 | 0.00 | 1.02 | 0.97 | 92 | 1003.9 |
| 20260501223603 | 16 | 63 | 19.3 | 32.2 | 0.00 | 1.02 | 0.97 | 92 | 1003.7 |
| 20260501223504 | 16 | 14 | 16.1 | 32.2 | 0.00 | 1.02 | 0.97 | 92 | 1003.8 |
| 20260501223402 | 16 | 0 | 17.7 | 32.2 | 0.00 | 1.02 | 0.97 | 92 | 1003.7 |
| 20260501223303 | 16 | 7 | 12.9 | 32.2 | 0.00 | 1.02 | 0.97 | 92 | 1003.9 |
| 20260501223203 | 16 | 21 | 9.7 | 30.6 | 0.00 | 1.02 | 0.97 | 92 | 1004.0 |
| 20260501223102 | 16 | 32 | 9.7 | 22.5 | 0.00 | 1.02 | 0.97 | 92 | 1004.2 |
| 20260501223005 | 16 | 35 | 11.3 | 22.5 | 0.00 | 1.02 | 0.97 | 92 | 1004.2 |
| 20260501222904 | 16 | 0 | 12.9 | 22.5 | 0.00 | 1.02 | 0.97 | 92 | 1004.3 |
| 20260501222804 | 16 | 48 | 11.3 | 25.7 | 0.00 | 1.02 | 0.97 | 92 | 1004.2 |
| 20260501222703 | 16 | 82 | 11.3 | 25.7 | 0.00 | 1.02 | 0.97 | 92 | 1004.2 |
| 20260501222602 | 16 | 25 | 14.5 | 27.4 | 0.00 | 1.02 | 0.97 | 92 | 1004.1 |
| 20260501222504 | 16 | 32 | 12.9 | 27.4 | 0.00 | 1.02 | 0.97 | 92 | 1004.1 |
| 20260501222403 | 16 | 62 | 12.9 | 27.4 | 0.00 | 1.02 | 0.97 | 92 | 1004.0 |
| 20260501222305 | 16 | 49 | 12.9 | 27.4 | 0.00 | 1.02 | 0.97 | 92 | 1004.0 |
| 20260501222204 | 16 | 39 | 11.3 | 27.4 | 0.00 | 1.02 | 0.97 | 92 | 1004.1 |
| 20260501222102 | 16 | 38 | 11.3 | 27.4 | 0.00 | 1.02 | 0.97 | 92 | 1004.0 |
| 20260501222003 | 16 | 358 | 12.9 | 27.4 | 0.00 | 1.02 | 0.97 | 92 | 1003.9 |
| 20260501221902 | 16 | 41 | 14.5 | 27.4 | 0.00 | 1.02 | 0.97 | 92 | 1003.9 |
| 20260501221802 | 16 | 17 | 16.1 | 27.4 | 0.00 | 1.02 | 0.97 | 92 | 1003.9 |
| 20260501221703 | 16 | 32 | 17.7 | 27.4 | 0.00 | 1.02 | 0.97 | 92 | 1004.0 |
| 20260501221602 | 16 | 32 | 16.1 | 27.4 | 0.00 | 1.02 | 0.97 | 92 | 1003.9 |
| 20260501221504 | 16 | 48 | 17.7 | 27.4 | 0.03 | 1.02 | 0.97 | 92 | 1003.9 |
| 20260501221403 | 16 | 28 | 19.3 | 27.4 | 0.03 | 1.02 | 0.97 | 92 | 1003.9 |
| 20260501221303 | 16 | 354 | 19.3 | 27.4 | 0.03 | 1.02 | 0.97 | 92 | 1004.0 |
| 20260501221203 | 16 | 0 | 17.7 | 25.7 | 0.03 | 1.02 | 0.97 | 92 | 1004.0 |
| 20260501221102 | 16 | 13 | 17.7 | 25.7 | 0.03 | 1.02 | 0.97 | 92 | 1003.9 |
| 20260501221003 | 16 | 69 | 14.5 | 25.7 | 0.03 | 1.02 | 0.97 | 92 | 1004.0 |
| 20260501220902 | 16 | 11 | 11.3 | 25.7 | 0.03 | 1.02 | 0.97 | 92 | 1003.8 |
| 20260501220803 | 16 | 14 | 12.9 | 25.7 | 0.03 | 1.02 | 0.97 | 92 | 1003.7 |
| 20260501220702 | 16 | 0 | 14.5 | 25.7 | 0.03 | 1.02 | 0.97 | 92 | 1003.8 |
| 20260501220603 | 16 | 28 | 17.7 | 25.7 | 0.03 | 1.02 | 0.97 | 92 | 1003.9 |
| 20260501220505 | 16 | 23 | 16.1 | 25.7 | 0.03 | 1.02 | 0.97 | 92 | 1004.0 |
| 20260501220403 | 16 | 44 | 14.5 | 24.1 | 0.03 | 1.02 | 0.97 | 92 | 1004.1 |
| 20260501220303 | 16 | 58 | 14.5 | 24.1 | 0.03 | 1.02 | 0.97 | 93 | 1004.0 |
| 20260501220202 | 16 | 1 | 12.9 | 24.1 | 0.03 | 1.02 | 0.97 | 93 | 1004.1 |
| 20260501220004 | 16 | 0 | 12.9 | 24.1 | 0.03 | 1.02 | 0.94 | 93 | 1004.1 |
| 20260501215903 | 16 | 0 | 14.5 | 24.1 | 0.03 | 1.02 | 0.97 | 92 | 1004.1 |
| 20260501215804 | 16 | 30 | 17.7 | 24.1 | 0.03 | 1.02 | 0.97 | 92 | 1004.3 |
| 20260501215703 | 16 | 20 | 16.1 | 24.1 | 0.03 | 1.02 | 0.97 | 92 | 1004.3 |
| 20260501215604 | 16 | 0 | 17.7 | 24.1 | 0.03 | 1.02 | 0.97 | 92 | 1004.4 |
| 20260501215502 | 16 | 20 | 17.7 | 24.1 | 0.03 | 1.02 | 0.97 | 92 | 1004.4 |
| 20260501215403 | 16 | 24 | 16.1 | 24.1 | 0.03 | 1.02 | 0.97 | 92 | 1004.5 |
| 20260501215305 | 16 | 21 | 16.1 | 24.1 | 0.03 | 1.02 | 0.97 | 92 | 1004.5 |
| 20260501215202 | 16 | 14 | 14.5 | 24.1 | 0.03 | 1.02 | 0.97 | 92 | 1004.7 |
| 20260501215103 | 16 | 0 | 14.5 | 24.1 | 0.03 | 1.02 | 0.97 | 92 | 1004.6 |
| 20260501215003 | 16 | 355 | 16.1 | 24.1 | 0.03 | 1.02 | 0.97 | 92 | 1004.5 |
| 20260501214904 | 16 | 0 | 16.1 | 24.1 | 0.03 | 1.02 | 0.97 | 92 | 1004.8 |
| 20260501214803 | 16 | 20 | 16.1 | 24.1 | 0.03 | 1.02 | 0.97 | 92 | 1004.9 |
| 20260501214702 | 16 | 351 | 14.5 | 24.1 | 0.03 | 1.02 | 0.97 | 92 | 1004.9 |
| 20260501214603 | 16 | 1 | 14.5 | 24.1 | 0.03 | 1.02 | 0.97 | 92 | 1005.0 |
| 20260501214504 | 16 | 354 | 11.3 | 24.1 | 0.03 | 1.02 | 0.97 | 93 | 1005.1 |
| 20260501214404 | 16 | 357 | 12.9 | 24.1 | 0.03 | 1.02 | 0.97 | 92 | 1005.1 |
| 20260501214303 | 16 | 0 | 16.1 | 24.1 | 0.03 | 1.02 | 0.97 | 92 | 1005.1 |
| 20260501214204 | 16 | 7 | 14.5 | 24.1 | 0.03 | 1.02 | 0.97 | 93 | 1005.0 |
| 20260501214105 | 16 | 4 | 14.5 | 24.1 | 0.03 | 1.02 | 0.97 | 93 | 1005.0 |
| 20260501214002 | 16 | 0 | 12.9 | 24.1 | 0.03 | 1.02 | 0.97 | 93 | 1004.9 |
| 20260501213903 | 16 | 0 | 11.3 | 24.1 | 0.03 | 1.02 | 0.97 | 93 | 1004.9 |
| 20260501213803 | 16 | 345 | 14.5 | 24.1 | 0.03 | 1.02 | 0.97 | 93 | 1005.0 |
| 20260501213705 | 16 | 0 | 12.9 | 24.1 | 0.03 | 1.02 | 0.97 | 93 | 1004.9 |
| 20260501213604 | 16 | 48 | 14.5 | 24.1 | 0.03 | 1.02 | 0.97 | 93 | 1004.8 |
| 20260501213503 | 16 | 0 | 16.1 | 24.1 | 0.03 | 1.02 | 0.97 | 93 | 1004.7 |
| 20260501213403 | 16 | 358 | 17.7 | 24.1 | 0.03 | 1.02 | 0.97 | 93 | 1004.8 |
| 20260501213303 | 16 | 11 | 17.7 | 24.1 | 0.03 | 1.02 | 0.97 | 93 | 1004.7 |
| 20260501213203 | 16 | 8 | 16.1 | 24.1 | 0.03 | 1.02 | 0.97 | 93 | 1004.8 |
| 20260501213104 | 16 | 347 | 14.5 | 24.1 | 0.03 | 1.02 | 0.97 | 93 | 1004.7 |
| 20260501213003 | 16 | 4 | 14.5 | 24.1 | 0.05 | 1.02 | 0.97 | 93 | 1004.7 |
| 20260501212903 | 16 | 17 | 12.9 | 20.9 | 0.05 | 1.02 | 0.97 | 93 | 1004.7 |
| 20260501212803 | 16 | 14 | 9.7 | 14.5 | 0.05 | 1.02 | 0.97 | 93 | 1004.7 |
| 20260501212703 | 16 | 14 | 9.7 | 16.1 | 0.05 | 1.02 | 0.97 | 93 | 1004.8 |
| 20260501212603 | 16 | 14 | 9.7 | 19.3 | 0.05 | 1.02 | 0.97 | 93 | 1004.9 |
| 20260501212505 | 16 | 14 | 9.7 | 22.5 | 0.05 | 1.02 | 0.97 | 93 | 1005.1 |
| 20260501212404 | 16 | 14 | 9.7 | 22.5 | 0.05 | 1.02 | 0.97 | 93 | 1005.3 |
| 20260501212306 | 16 | 14 | 9.7 | 22.5 | 0.05 | 1.02 | 0.97 | 93 | 1005.5 |
| 20260501212204 | 16 | 14 | 9.7 | 22.5 | 0.05 | 1.02 | 0.97 | 93 | 1005.5 |
| 20260501212103 | 16 | 14 | 9.7 | 22.5 | 0.05 | 1.02 | 0.97 | 93 | 1005.4 |
| 20260501212003 | 16 | 14 | 9.7 | 22.5 | 0.05 | 1.02 | 0.97 | 93 | 1005.4 |
| 20260501211904 | 16 | 345 | 9.7 | 22.5 | 0.05 | 1.02 | 0.97 | 93 | 1005.2 |
| 20260501211803 | 16 | 350 | 11.3 | 22.5 | 0.05 | 1.02 | 0.97 | 93 | 1005.2 |
| 20260501211703 | 16 | 16 | 14.5 | 22.5 | 0.05 | 1.02 | 0.97 | 93 | 1005.1 |
| 20260501211603 | 16 | 10 | 14.5 | 22.5 | 0.05 | 0.99 | 0.94 | 93 | 1005.1 |
| 20260501211505 | 16 | 56 | 12.9 | 20.9 | 0.03 | 0.99 | 0.94 | 93 | 1005.1 |
| 20260501211401 | 16 | 0 | 11.3 | 20.9 | 0.03 | 0.99 | 0.94 | 93 | 1005.0 |
| 20260501211302 | 16 | 0 | 12.9 | 22.5 | 0.03 | 0.99 | 0.94 | 93 | 1005.1 |
| 20260501211204 | 16 | 20 | 16.1 | 22.5 | 0.03 | 0.99 | 0.94 | 93 | 1004.9 |
| 20260501211103 | 16 | 341 | 14.5 | 22.5 | 0.03 | 0.99 | 0.94 | 93 | 1004.9 |
| 20260501211005 | 16 | 1 | 9.7 | 22.5 | 0.03 | 0.99 | 0.94 | 93 | 1004.9 |
| 20260501210902 | 16 | 0 | 9.7 | 22.5 | 0.03 | 0.99 | 0.94 | 93 | 1004.8 |
| 20260501210804 | 16 | 0 | 12.9 | 22.5 | 0.03 | 0.99 | 0.94 | 93 | 1004.7 |
| 20260501210704 | 16 | 354 | 14.5 | 22.5 | 0.03 | 0.99 | 0.94 | 93 | 1004.7 |
| 20260501210603 | 16 | 0 | 16.1 | 22.5 | 0.03 | 0.99 | 0.94 | 93 | 1004.7 |
| 20260501210504 | 16 | 357 | 16.1 | 22.5 | 0.03 | 0.99 | 0.94 | 93 | 1004.7 |
| 20260501210403 | 16 | 32 | 11.3 | 22.5 | 0.03 | 0.99 | 0.94 | 93 | 1004.6 |
| 20260501210304 | 16 | 350 | 9.7 | 20.9 | 0.03 | 0.99 | 0.94 | 93 | 1004.6 |
| 20260501210203 | 16 | 357 | 11.3 | 22.5 | 0.03 | 0.99 | 0.94 | 93 | 1004.5 |
| 20260501210003 | 16 | 13 | 14.5 | 22.5 | 0.05 | 0.99 | 0.89 | 93 | 1004.6 |
| 20260501205902 | 16 | 0 | 12.9 | 22.5 | 0.05 | 0.99 | 0.94 | 93 | 1004.6 |
| 20260501205803 | 16 | 347 | 11.3 | 22.5 | 0.05 | 0.99 | 0.94 | 93 | 1004.5 |
| 20260501205702 | 16 | 350 | 12.9 | 25.7 | 0.05 | 0.99 | 0.94 | 93 | 1004.5 |
| 20260501205603 | 16 | 348 | 12.9 | 27.4 | 0.05 | 0.99 | 0.94 | 93 | 1004.4 |
| 20260501205505 | 16 | 0 | 14.5 | 27.4 | 0.05 | 0.99 | 0.94 | 93 | 1004.3 |
| 20260501205402 | 16 | 11 | 16.1 | 27.4 | 0.05 | 0.99 | 0.94 | 93 | 1004.2 |
| 20260501205305 | 16 | 11 | 16.1 | 27.4 | 0.05 | 0.99 | 0.94 | 93 | 1004.1 |
| 20260501205204 | 16 | 348 | 12.9 | 27.4 | 0.05 | 0.99 | 0.94 | 93 | 1004.0 |
| 20260501205104 | 16 | 0 | 11.3 | 27.4 | 0.05 | 0.99 | 0.94 | 93 | 1003.8 |
| 20260501205004 | 16 | 0 | 14.5 | 27.4 | 0.05 | 0.99 | 0.94 | 93 | 1003.7 |
| 20260501204901 | 16 | 13 | 16.1 | 27.4 | 0.05 | 0.99 | 0.94 | 93 | 1003.6 |
| 20260501204803 | 16 | 351 | 17.7 | 27.4 | 0.05 | 0.99 | 0.94 | 93 | 1003.4 |
| 20260501204704 | 16 | 327 | 16.1 | 27.4 | 0.05 | 0.99 | 0.94 | 93 | 1003.4 |
| 20260501204604 | 16 | 14 | 16.1 | 25.7 | 0.05 | 0.99 | 0.94 | 93 | 1003.5 |
| 20260501204502 | 16 | 344 | 17.7 | 25.7 | 0.05 | 0.99 | 0.94 | 93 | 1003.5 |
| 20260501204402 | 16 | 23 | 16.1 | 25.7 | 0.05 | 0.99 | 0.94 | 93 | 1003.8 |
| 20260501204304 | 16 | 14 | 16.1 | 25.7 | 0.05 | 0.99 | 0.94 | 93 | 1003.7 |
| 20260501204203 | 16 | 14 | 16.1 | 25.7 | 0.05 | 0.99 | 0.94 | 93 | 1003.9 |
| 20260501204103 | 16 | 17 | 17.7 | 25.7 | 0.05 | 0.99 | 0.94 | 93 | 1004.0 |
| 20260501204003 | 16 | 27 | 17.7 | 25.7 | 0.05 | 0.99 | 0.94 | 93 | 1004.1 |
| 20260501203902 | 16 | 340 | 16.1 | 24.1 | 0.05 | 0.99 | 0.94 | 93 | 1004.1 |
| 20260501203803 | 16 | 354 | 16.1 | 24.1 | 0.05 | 0.99 | 0.94 | 93 | 1004.1 |
| 20260501203702 | 16 | 355 | 16.1 | 24.1 | 0.05 | 0.99 | 0.94 | 93 | 1004.1 |
| 20260501203604 | 16 | 0 | 12.9 | 24.1 | 0.05 | 0.99 | 0.94 | 93 | 1004.1 |
| 20260501203504 | 16 | 0 | 9.7 | 20.9 | 0.05 | 0.99 | 0.94 | 93 | 1004.1 |
| 20260501203403 | 16 | 14 | 11.3 | 20.9 | 0.05 | 0.99 | 0.94 | 93 | 1004.0 |
| 20260501203302 | 16 | 11 | 12.9 | 20.9 | 0.05 | 0.99 | 0.94 | 93 | 1004.0 |
| 20260501203201 | 17 | 347 | 12.9 | 20.9 | 0.05 | 0.99 | 0.94 | 93 | 1004.0 |
| 20260501203103 | 17 | 351 | 14.5 | 20.9 | 0.05 | 0.97 | 0.91 | 93 | 1004.1 |
| 20260501203002 | 17 | 334 | 14.5 | 20.9 | 0.03 | 0.97 | 0.91 | 93 | 1004.0 |
| 20260501202902 | 17 | 351 | 12.9 | 20.9 | 0.03 | 0.97 | 0.91 | 93 | 1004.1 |
| 20260501202803 | 17 | 0 | 11.3 | 19.3 | 0.03 | 0.97 | 0.91 | 93 | 1004.0 |
| 20260501202702 | 17 | 0 | 12.9 | 19.3 | 0.03 | 0.97 | 0.91 | 93 | 1003.9 |
| 20260501202602 | 17 | 0 | 12.9 | 19.3 | 0.03 | 0.97 | 0.91 | 93 | 1004.0 |
| 20260501202504 | 17 | 347 | 12.9 | 17.7 | 0.03 | 0.97 | 0.91 | 93 | 1004.0 |
| 20260501202403 | 17 | 0 | 12.9 | 17.7 | 0.03 | 0.97 | 0.91 | 93 | 1004.0 |
| 20260501202306 | 17 | 3 | 12.9 | 17.7 | 0.03 | 0.97 | 0.91 | 93 | 1004.0 |
| 20260501202203 | 17 | 0 | 12.9 | 17.7 | 0.03 | 0.97 | 0.91 | 93 | 1004.0 |
| 20260501202103 | 16 | 0 | 11.3 | 19.3 | 0.03 | 0.97 | 0.91 | 93 | 1004.1 |
| 20260501202005 | 17 | 14 | 8.0 | 19.3 | 0.03 | 0.97 | 0.91 | 93 | 1004.1 |
| 20260501201903 | 16 | 37 | 8.0 | 19.3 | 0.03 | 0.97 | 0.91 | 93 | 1004.1 |
| 20260501201802 | 16 | 20 | 9.7 | 24.1 | 0.03 | 0.97 | 0.91 | 93 | 1004.2 |
| 20260501201704 | 17 | 0 | 9.7 | 24.1 | 0.03 | 0.97 | 0.91 | 93 | 1003.9 |
| 20260501201602 | 17 | 24 | 8.0 | 24.1 | 0.03 | 0.97 | 0.91 | 93 | 1003.7 |
| 20260501201503 | 16 | 32 | 6.4 | 24.1 | 0.03 | 0.97 | 0.91 | 93 | 1003.5 |
| 20260501201402 | 17 | 13 | 8.0 | 24.1 | 0.03 | 0.97 | 0.91 | 93 | 1003.3 |
| 20260501201302 | 16 | 11 | 9.7 | 24.1 | 0.03 | 0.97 | 0.91 | 93 | 1003.2 |
| 20260501201205 | 17 | 0 | 9.7 | 24.1 | 0.05 | 0.97 | 0.91 | 93 | 1003.3 |
| 20260501201103 | 17 | 28 | 12.9 | 24.1 | 0.05 | 0.97 | 0.91 | 93 | 1003.2 |
| 20260501201005 | 17 | 75 | 14.5 | 24.1 | 0.05 | 0.97 | 0.91 | 93 | 1003.3 |
| 20260501200905 | 17 | 7 | 16.1 | 24.1 | 0.05 | 0.97 | 0.91 | 93 | 1003.3 |
| 20260501200805 | 17 | 340 | 14.5 | 24.1 | 0.05 | 0.97 | 0.91 | 93 | 1003.4 |
| 20260501200703 | 17 | 13 | 12.9 | 24.1 | 0.05 | 0.97 | 0.91 | 93 | 1003.4 |
| 20260501200604 | 17 | 355 | 16.1 | 24.1 | 0.05 | 0.97 | 0.91 | 93 | 1003.4 |
| 20260501200503 | 17 | 353 | 16.1 | 24.1 | 0.05 | 0.97 | 0.91 | 93 | 1003.4 |
| 20260501200402 | 17 | 4 | 14.5 | 22.5 | 0.05 | 0.97 | 0.91 | 93 | 1003.3 |
| 20260501200303 | 17 | 0 | 16.1 | 22.5 | 0.05 | 0.97 | 0.91 | 93 | 1003.3 |
| 20260501200202 | 17 | 0 | 14.5 | 25.7 | 0.05 | 0.97 | 0.91 | 93 | 1003.2 |
| 20260501200003 | 17 | 10 | 11.3 | 27.4 | 0.03 | 0.94 | 0.86 | 93 | 1003.3 |
| 20260501195902 | 17 | 0 | 11.3 | 27.4 | 0.03 | 0.94 | 0.89 | 93 | 1003.4 |
| 20260501195802 | 17 | 345 | 11.3 | 27.4 | 0.03 | 0.94 | 0.89 | 93 | 1003.4 |
| 20260501195703 | 17 | 0 | 12.9 | 27.4 | 0.03 | 0.94 | 0.89 | 93 | 1003.5 |
| 20260501195603 | 17 | 351 | 12.9 | 27.4 | 0.03 | 0.94 | 0.89 | 93 | 1003.4 |
| 20260501195501 | 17 | 358 | 14.5 | 27.4 | 0.03 | 0.94 | 0.89 | 93 | 1003.5 |
| 20260501195404 | 17 | 345 | 17.7 | 27.4 | 0.03 | 0.94 | 0.89 | 93 | 1003.4 |
| 20260501195306 | 17 | 351 | 19.3 | 27.4 | 0.03 | 0.94 | 0.89 | 93 | 1003.4 |
| 20260501195202 | 17 | 341 | 17.7 | 27.4 | 0.03 | 0.94 | 0.89 | 93 | 1003.3 |
| 20260501195103 | 17 | 0 | 17.7 | 24.1 | 0.03 | 0.94 | 0.89 | 93 | 1003.3 |
| 20260501195003 | 17 | 340 | 16.1 | 22.5 | 0.03 | 0.94 | 0.89 | 93 | 1003.5 |
| 20260501194902 | 17 | 337 | 14.5 | 22.5 | 0.03 | 0.94 | 0.89 | 93 | 1003.6 |
| 20260501194802 | 17 | 333 | 12.9 | 19.3 | 0.03 | 0.94 | 0.89 | 93 | 1003.7 |
| 20260501194702 | 17 | 331 | 11.3 | 17.7 | 0.03 | 0.94 | 0.89 | 93 | 1003.8 |
| 20260501194603 | 17 | 341 | 11.3 | 17.7 | 0.03 | 0.94 | 0.89 | 93 | 1003.8 |
| 20260501194503 | 17 | 330 | 12.9 | 17.7 | 0.03 | 0.94 | 0.89 | 93 | 1003.9 |
| 20260501194402 | 17 | 331 | 11.3 | 17.7 | 0.03 | 0.94 | 0.89 | 93 | 1003.8 |
| 20260501194302 | 17 | 353 | 11.3 | 17.7 | 0.03 | 0.94 | 0.89 | 93 | 1003.8 |
| 20260501194202 | 17 | 1 | 9.7 | 14.5 | 0.05 | 0.94 | 0.89 | 93 | 1003.7 |
| 20260501194104 | 17 | 354 | 8.0 | 14.5 | 0.05 | 0.94 | 0.89 | 93 | 1003.7 |
| 20260501194005 | 17 | 0 | 8.0 | 17.7 | 0.05 | 0.94 | 0.89 | 93 | 1003.8 |
| 20260501193903 | 17 | 30 | 8.0 | 17.7 | 0.05 | 0.94 | 0.89 | 93 | 1003.7 |
| 20260501193803 | 17 | 18 | 8.0 | 17.7 | 0.05 | 0.94 | 0.89 | 93 | 1003.7 |
| 20260501193702 | 17 | 41 | 8.0 | 17.7 | 0.05 | 0.94 | 0.89 | 93 | 1003.6 |
| 20260501193603 | 17 | 1 | 4.8 | 17.7 | 0.05 | 0.94 | 0.89 | 93 | 1003.6 |
| 20260501193459 | 17 | 6 | 3.2 | 17.7 | 0.05 | 0.94 | 0.89 | 93 | 1003.5 |
| 20260501193356 | 17 | 55 | 6.4 | 17.7 | 0.05 | 0.94 | 0.89 | 93 | 1003.5 |
| 20260501193254 | 17 | 6 | 8.0 | 17.7 | 0.05 | 0.94 | 0.89 | 93 | 1003.4 |
| 20260501193154 | 17 | 10 | 8.0 | 17.7 | 0.05 | 0.94 | 0.89 | 93 | 1003.4 |
| 20260501193047 | 17 | 13 | 6.4 | 11.3 | 0.05 | 0.94 | 0.89 | 93 | 1003.4 |
| 20260501192945 | 17 | 0 | 6.4 | 11.3 | 0.05 | 0.94 | 0.89 | 93 | 1003.4 |
| 20260501192843 | 17 | 0 | 8.0 | 11.3 | 0.05 | 0.94 | 0.89 | 93 | 1003.4 |
| 20260501192732 | 17 | 37 | 9.7 | 11.3 | 0.05 | 0.94 | 0.89 | 93 | 1003.4 |
| 20260501192631 | 17 | 23 | 8.0 | 11.3 | 0.05 | 0.94 | 0.89 | 93 | 1003.6 |
| 20260501192534 | 17 | 6 | 8.0 | 11.3 | 0.05 | 0.94 | 0.89 | 93 | 1003.5 |
| 20260501192431 | 17 | 27 | 8.0 | 11.3 | 0.05 | 0.94 | 0.89 | 93 | 1003.5 |
| 20260501192332 | 17 | 47 | 8.0 | 11.3 | 0.05 | 0.94 | 0.89 | 93 | 1003.4 |
| 20260501192231 | 17 | 41 | 8.0 | 11.3 | 0.05 | 0.94 | 0.89 | 93 | 1003.4 |
| 20260501192132 | 17 | 51 | 8.0 | 11.3 | 0.05 | 0.94 | 0.89 | 93 | 1003.4 |
| 20260501192033 | 17 | 24 | 8.0 | 11.3 | 0.05 | 0.94 | 0.89 | 93 | 1003.4 |
| 20260501191933 | 17 | 27 | 6.4 | 11.3 | 0.05 | 0.94 | 0.89 | 93 | 1003.5 |
| 20260501191832 | 17 | 44 | 4.8 | 9.7 | 0.05 | 0.94 | 0.89 | 93 | 1003.4 |
| 20260501191733 | 17 | 39 | 4.8 | 11.3 | 0.05 | 0.94 | 0.89 | 93 | 1003.5 |
| 20260501191631 | 17 | 41 | 3.2 | 11.3 | 0.05 | 0.94 | 0.89 | 93 | 1003.6 |
| 20260501191531 | 17 | 27 | 3.2 | 11.3 | 0.05 | 0.94 | 0.89 | 93 | 1003.6 |
| 20260501191432 | 17 | 45 | 4.8 | 11.3 | 0.05 | 0.94 | 0.89 | 93 | 1003.6 |
| 20260501191324 | 17 | 45 | 6.4 | 14.5 | 0.05 | 0.94 | 0.89 | 93 | 1003.6 |
| 20260501191223 | 17 | 71 | 6.4 | 14.5 | 0.03 | 0.91 | 0.86 | 93 | 1003.4 |
| 20260501191121 | 17 | 44 | 6.4 | 14.5 | 0.03 | 0.91 | 0.86 | 93 | 1003.4 |
| 20260501191019 | 17 | 17 | 8.0 | 14.5 | 0.03 | 0.91 | 0.86 | 93 | 1003.4 |
| 20260501190919 | 17 | 347 | 8.0 | 16.1 | 0.03 | 0.91 | 0.86 | 93 | 1003.5 |
| 20260501190809 | 17 | 14 | 6.4 | 16.1 | 0.03 | 0.91 | 0.86 | 93 | 1003.6 |
| 20260501190707 | 17 | 1 | 6.4 | 17.7 | 0.03 | 0.91 | 0.86 | 93 | 1003.6 |
| 20260501190605 | 17 | 31 | 6.4 | 17.7 | 0.03 | 0.91 | 0.86 | 93 | 1003.5 |
| 20260501190506 | 17 | 58 | 8.0 | 17.7 | 0.03 | 0.91 | 0.86 | 93 | 1003.4 |
| 20260501190405 | 17 | 63 | 6.4 | 17.7 | 0.05 | 0.91 | 0.86 | 93 | 1003.4 |
| 20260501190305 | 17 | 68 | 6.4 | 17.7 | 0.05 | 0.91 | 0.86 | 93 | 1003.5 |
| 20260501190207 | 17 | 68 | 8.0 | 17.7 | 0.05 | 0.91 | 0.86 | 93 | 1003.6 |
| 20260501190105 | 17 | 52 | 8.0 | 17.7 | 0.05 | 0.91 | 0.86 | 93 | 1003.7 |
| 20260501190005 | 17 | 44 | 6.4 | 17.7 | 0.05 | 0.91 | 0.81 | 93 | 1003.4 |
| 20260501185906 | 17 | 63 | 8.0 | 17.7 | 0.05 | 0.91 | 0.86 | 93 | 1003.4 |
| 20260501185806 | 17 | 48 | 9.7 | 17.7 | 0.05 | 0.91 | 0.86 | 93 | 1003.1 |
| 20260501185706 | 17 | 41 | 9.7 | 16.1 | 0.05 | 0.91 | 0.86 | 93 | 1003.2 |
| 20260501185606 | 17 | 23 | 9.7 | 16.1 | 0.05 | 0.91 | 0.86 | 93 | 1003.3 |
| 20260501185506 | 17 | 48 | 8.0 | 14.5 | 0.05 | 0.91 | 0.86 | 93 | 1003.7 |
| 20260501185406 | 17 | 41 | 6.4 | 14.5 | 0.05 | 0.91 | 0.86 | 93 | 1004.0 |
| 20260501185306 | 17 | 54 | 4.8 | 14.5 | 0.05 | 0.91 | 0.86 | 93 | 1004.4 |
| 20260501185206 | 17 | 34 | 3.2 | 14.5 | 0.05 | 0.91 | 0.86 | 93 | 1004.5 |
| 20260501185105 | 17 | 28 | 6.4 | 17.7 | 0.05 | 0.91 | 0.86 | 93 | 1004.4 |
| 20260501185005 | 17 | 31 | 6.4 | 17.7 | 0.05 | 0.91 | 0.86 | 93 | 1004.2 |
| 20260501184906 | 17 | 45 | 8.0 | 17.7 | 0.05 | 0.91 | 0.86 | 93 | 1004.1 |
| 20260501184805 | 17 | 27 | 9.7 | 17.7 | 0.05 | 0.91 | 0.86 | 93 | 1004.1 |
| 20260501184705 | 17 | 14 | 8.0 | 17.7 | 0.05 | 0.91 | 0.86 | 93 | 1004.0 |
| 20260501184605 | 17 | 0 | 6.4 | 17.7 | 0.05 | 0.91 | 0.86 | 93 | 1003.9 |
| 20260501184506 | 17 | 0 | 6.4 | 17.7 | 0.05 | 0.91 | 0.86 | 93 | 1003.8 |
| 20260501184404 | 17 | 0 | 9.7 | 17.7 | 0.05 | 0.91 | 0.86 | 93 | 1004.0 |
| 20260501184306 | 17 | 35 | 9.7 | 17.7 | 0.05 | 0.91 | 0.86 | 93 | 1003.9 |
| 20260501184207 | 17 | 10 | 9.7 | 17.7 | 0.03 | 0.89 | 0.84 | 93 | 1003.9 |
| 20260501184105 | 17 | 0 | 8.0 | 14.5 | 0.03 | 0.89 | 0.84 | 93 | 1003.7 |
| 20260501184006 | 17 | 6 | 6.4 | 14.5 | 0.03 | 0.89 | 0.84 | 93 | 1003.6 |
| 20260501183906 | 17 | 27 | 9.7 | 14.5 | 0.03 | 0.89 | 0.84 | 93 | 1003.6 |
| 20260501183805 | 17 | 24 | 6.4 | 19.3 | 0.03 | 0.89 | 0.84 | 93 | 1003.5 |
| 20260501183705 | 17 | 8 | 4.8 | 20.9 | 0.05 | 0.89 | 0.84 | 93 | 1003.7 |
| 20260501183605 | 17 | 49 | 4.8 | 20.9 | 0.05 | 0.89 | 0.84 | 93 | 1003.8 |
| 20260501183505 | 17 | 52 | 6.4 | 20.9 | 0.05 | 0.89 | 0.84 | 93 | 1003.9 |
| 20260501183406 | 17 | 69 | 3.2 | 20.9 | 0.05 | 0.89 | 0.84 | 93 | 1004.0 |
| 20260501183305 | 16 | 61 | 3.2 | 25.7 | 0.05 | 0.89 | 0.84 | 93 | 1003.9 |
| 20260501183204 | 16 | 54 | 8.0 | 25.7 | 0.05 | 0.89 | 0.84 | 93 | 1003.9 |
| 20260501183106 | 16 | 20 | 6.4 | 25.7 | 0.05 | 0.89 | 0.84 | 93 | 1003.8 |
| 20260501183005 | 16 | 54 | 6.4 | 25.7 | 0.05 | 0.89 | 0.84 | 93 | 1003.7 |
| 20260501182905 | 16 | 49 | 8.0 | 25.7 | 0.05 | 0.89 | 0.84 | 93 | 1003.5 |
| 20260501182807 | 16 | 20 | 9.7 | 25.7 | 0.05 | 0.89 | 0.84 | 93 | 1003.2 |
| 20260501182706 | 16 | 35 | 11.3 | 25.7 | 0.05 | 0.89 | 0.84 | 93 | 1002.9 |
| 20260501182605 | 16 | 58 | 9.7 | 25.7 | 0.05 | 0.89 | 0.84 | 93 | 1002.6 |
| 20260501182505 | 16 | 38 | 12.9 | 25.7 | 0.05 | 0.89 | 0.84 | 93 | 1002.5 |
| 20260501182405 | 16 | 58 | 14.5 | 25.7 | 0.05 | 0.89 | 0.84 | 93 | 1002.6 |
| 20260501182306 | 16 | 66 | 9.7 | 19.3 | 0.05 | 0.89 | 0.84 | 93 | 1002.9 |
| 20260501182204 | 16 | 44 | 9.7 | 16.1 | 0.05 | 0.89 | 0.84 | 93 | 1003.0 |
| 20260501182104 | 16 | 45 | 8.0 | 20.9 | 0.05 | 0.89 | 0.84 | 93 | 1003.1 |
| 20260501182005 | 16 | 24 | 6.4 | 20.9 | 0.05 | 0.89 | 0.84 | 93 | 1002.9 |
| 20260501181905 | 16 | 54 | 4.8 | 20.9 | 0.05 | 0.89 | 0.84 | 93 | 1003.1 |
| 20260501181805 | 16 | 93 | 6.4 | 20.9 | 0.05 | 0.89 | 0.84 | 93 | 1003.0 |
| 20260501181705 | 16 | 63 | 9.7 | 20.9 | 0.05 | 0.89 | 0.84 | 93 | 1003.0 |
| 20260501181604 | 16 | 103 | 9.7 | 20.9 | 0.05 | 0.89 | 0.84 | 93 | 1003.0 |
| 20260501181504 | 16 | 97 | 11.3 | 20.9 | 0.05 | 0.89 | 0.84 | 93 | 1003.0 |
| 20260501181404 | 16 | 79 | 11.3 | 20.9 | 0.05 | 0.89 | 0.84 | 93 | 1003.0 |
| 20260501181304 | 16 | 78 | 11.3 | 20.9 | 0.05 | 0.89 | 0.84 | 93 | 1003.1 |
| 20260501181204 | 16 | 109 | 9.7 | 20.9 | 0.05 | 0.89 | 0.84 | 93 | 1003.1 |
| 20260501181104 | 16 | 37 | 8.0 | 20.9 | 0.05 | 0.89 | 0.84 | 93 | 1003.1 |
| 20260501181004 | 16 | 80 | 6.4 | 20.9 | 0.05 | 0.89 | 0.84 | 93 | 1003.2 |
| 20260501180904 | 16 | 104 | 6.4 | 20.9 | 0.05 | 0.89 | 0.84 | 93 | 1003.2 |
| 20260501180805 | 17 | 76 | 6.4 | 20.9 | 0.05 | 0.89 | 0.84 | 93 | 1003.3 |
| 20260501180705 | 17 | 78 | 8.0 | 20.9 | 0.05 | 0.89 | 0.84 | 93 | 1003.1 |
| 20260501180604 | 17 | 85 | 9.7 | 20.9 | 0.05 | 0.89 | 0.84 | 93 | 1003.0 |
| 20260501180505 | 17 | 68 | 9.7 | 20.9 | 0.05 | 0.86 | 0.81 | 93 | 1002.8 |
| 20260501180404 | 17 | 109 | 4.8 | 17.7 | 0.03 | 0.86 | 0.81 | 93 | 1002.6 |
| 20260501180306 | 17 | 86 | 4.8 | 17.7 | 0.03 | 0.86 | 0.81 | 93 | 1002.6 |
| 20260501180205 | 17 | 85 | 4.8 | 17.7 | 0.03 | 0.86 | 0.81 | 93 | 1002.5 |
| 20260501180104 | 17 | 55 | 4.8 | 19.3 | 0.03 | 0.86 | 0.81 | 93 | 1002.5 |
| 20260501180005 | 17 | 72 | 6.4 | 19.3 | 0.03 | 0.86 | 0.79 | 93 | 1002.5 |
| 20260501175904 | 17 | 75 | 6.4 | 19.3 | 0.03 | 0.86 | 0.81 | 93 | 1002.6 |
| 20260501175806 | 17 | 45 | 8.0 | 20.9 | 0.03 | 0.86 | 0.81 | 93 | 1002.4 |
| 20260501175704 | 17 | 73 | 6.4 | 20.9 | 0.03 | 0.86 | 0.81 | 93 | 1002.4 |
| 20260501175604 | 17 | 44 | 6.4 | 22.5 | 0.03 | 0.86 | 0.81 | 93 | 1002.5 |
| 20260501175506 | 17 | 59 | 8.0 | 22.5 | 0.03 | 0.86 | 0.81 | 93 | 1002.5 |
| 20260501175404 | 17 | 16 | 8.0 | 22.5 | 0.03 | 0.86 | 0.81 | 93 | 1002.6 |
| 20260501175306 | 17 | 69 | 11.3 | 22.5 | 0.03 | 0.86 | 0.81 | 93 | 1002.8 |
| 20260501175203 | 17 | 34 | 9.7 | 22.5 | 0.03 | 0.86 | 0.81 | 93 | 1002.8 |
| 20260501175104 | 17 | 63 | 8.0 | 22.5 | 0.03 | 0.86 | 0.81 | 93 | 1002.9 |
| 20260501175004 | 17 | 32 | 11.3 | 22.5 | 0.03 | 0.86 | 0.81 | 93 | 1003.0 |
| 20260501174903 | 17 | 16 | 9.7 | 22.5 | 0.05 | 0.86 | 0.81 | 93 | 1003.1 |
| 20260501174803 | 17 | 23 | 14.5 | 22.5 | 0.05 | 0.86 | 0.81 | 93 | 1003.0 |
| 20260501174704 | 17 | 59 | 14.5 | 22.5 | 0.05 | 0.86 | 0.81 | 93 | 1003.0 |
| 20260501174605 | 17 | 27 | 12.9 | 24.1 | 0.05 | 0.86 | 0.81 | 93 | 1003.1 |
| 20260501174506 | 17 | 13 | 11.3 | 24.1 | 0.05 | 0.86 | 0.81 | 93 | 1003.2 |
| 20260501174405 | 17 | 32 | 9.7 | 24.1 | 0.05 | 0.86 | 0.81 | 93 | 1003.4 |
| 20260501174304 | 17 | 8 | 9.7 | 24.1 | 0.05 | 0.86 | 0.81 | 93 | 1003.5 |
| 20260501174204 | 17 | 27 | 11.3 | 24.1 | 0.05 | 0.86 | 0.81 | 93 | 1003.6 |
| 20260501174106 | 17 | 0 | 12.9 | 24.1 | 0.05 | 0.86 | 0.81 | 93 | 1003.6 |
| 20260501174005 | 17 | 35 | 14.5 | 24.1 | 0.05 | 0.86 | 0.81 | 93 | 1003.6 |
| 20260501173904 | 17 | 7 | 14.5 | 24.1 | 0.05 | 0.86 | 0.81 | 93 | 1003.5 |
| 20260501173803 | 17 | 25 | 14.5 | 24.1 | 0.05 | 0.84 | 0.79 | 93 | 1003.6 |
| 20260501173703 | 17 | 16 | 12.9 | 22.5 | 0.03 | 0.84 | 0.79 | 93 | 1004.1 |
| 20260501173604 | 17 | 4 | 12.9 | 22.5 | 0.03 | 0.84 | 0.79 | 93 | 1004.1 |
| 20260501173504 | 17 | 13 | 11.3 | 22.5 | 0.03 | 0.84 | 0.79 | 93 | 1004.2 |
| 20260501173405 | 17 | 0 | 14.5 | 22.5 | 0.03 | 0.84 | 0.79 | 93 | 1004.4 |